Wetterdaten: Dienstag, 03.07.2018
Datum Zeit Temp. Aussen Temp. o. S. +5cm Feuchte Auss Luftdruck Regen Sonnenschein Regendauer Solar Windben Empfang
03.07.2018 00:00 20,2 C 18,9 C 18,9 C 46 % 1014,3 hPa 0,0 l/m 0 min 0 min 0 W/m 4,5 km/h (1 Bft) 97,87 %
03.07.2018 00:02 20,2 C 18,9 C 18,9 C 46 % 1014,3 hPa 0,0 l/m 0 min 0 min 0 W/m 0,0 km/h (0 Bft) 100,00 %
03.07.2018 00:04 20,2 C 18,9 C 18,9 C 46 % 1014,3 hPa 0,0 l/m 0 min 0 min 0 W/m 0,0 km/h (0 Bft) 100,00 %
03.07.2018 00:07 20,1 C 18,9 C 18,9 C 47 % 1014,4 hPa 0,0 l/m 0 min 0 min 0 W/m 4,5 km/h (1 Bft) 100,00 %
03.07.2018 00:08 20,1 C 18,9 C 18,9 C 47 % 1014,3 hPa 0,0 l/m 0 min 0 min 0 W/m 4,5 km/h (1 Bft) 100,00 %
03.07.2018 00:10 20,1 C 18,9 C 18,9 C 47 % 1014,4 hPa 0,0 l/m 0 min 0 min 0 W/m 4,5 km/h (1 Bft) 100,00 %
03.07.2018 00:12 20,1 C 18,3 C 18,9 C 47 % 1014,4 hPa 0,0 l/m 0 min 0 min 0 W/m 9,0 km/h (2 Bft) 100,00 %
03.07.2018 00:14 20,0 C 18,3 C 18,9 C 47 % 1014,4 hPa 0,0 l/m 0 min 0 min 0 W/m 4,5 km/h (1 Bft) 100,00 %
03.07.2018 00:16 20,0 C 18,3 C 18,9 C 47 % 1014,4 hPa 0,0 l/m 0 min 0 min 0 W/m 2,3 km/h (1 Bft) 100,00 %
03.07.2018 00:18 19,9 C 18,3 C 18,3 C 47 % 1014,3 hPa 0,0 l/m 0 min 0 min 0 W/m 4,5 km/h (1 Bft) 97,87 %
03.07.2018 00:20 19,9 C 18,3 C 18,3 C 47 % 1014,3 hPa 0,0 l/m 0 min 0 min 0 W/m 4,5 km/h (1 Bft) 100,00 %
03.07.2018 00:22 19,8 C 18,3 C 18,3 C 47 % 1014,4 hPa 0,0 l/m 0 min 0 min 0 W/m 4,5 km/h (1 Bft) 100,00 %
03.07.2018 00:24 19,8 C 18,3 C 18,3 C 47 % 1014,3 hPa 0,0 l/m 0 min 0 min 0 W/m 4,5 km/h (1 Bft) 100,00 %
03.07.2018 00:26 19,8 C 18,3 C 18,3 C 47 % 1014,4 hPa 0,0 l/m 0 min 0 min 0 W/m 6,8 km/h (2 Bft) 100,00 %
03.07.2018 00:28 19,7 C 18,3 C 18,3 C 48 % 1014,5 hPa 0,0 l/m 0 min 0 min 0 W/m 6,8 km/h (2 Bft) 97,87 %
03.07.2018 00:30 19,7 C 17,8 C 18,3 C 48 % 1014,6 hPa 0,0 l/m 0 min 0 min 0 W/m 2,3 km/h (1 Bft) 100,00 %
03.07.2018 00:32 19,7 C 17,8 C 18,3 C 48 % 1014,5 hPa 0,0 l/m 0 min 0 min 0 W/m 2,3 km/h (1 Bft) 95,12 %
03.07.2018 00:34 19,6 C 17,8 C 18,3 C 49 % 1014,4 hPa 0,0 l/m 0 min 0 min 0 W/m 6,8 km/h (2 Bft) 100,00 %
03.07.2018 00:36 19,6 C 17,8 C 18,3 C 49 % 1014,4 hPa 0,0 l/m 0 min 0 min 0 W/m 4,5 km/h (1 Bft) 97,87 %
03.07.2018 00:38 19,5 C 17,8 C 17,8 C 49 % 1014,5 hPa 0,0 l/m 0 min 0 min 0 W/m 4,5 km/h (1 Bft) 97,87 %
03.07.2018 00:40 19,4 C 17,8 C 17,8 C 49 % 1014,5 hPa 0,0 l/m 0 min 0 min 0 W/m 4,5 km/h (1 Bft) 100,00 %
03.07.2018 00:42 19,4 C 17,2 C 17,8 C 49 % 1014,6 hPa 0,0 l/m 0 min 0 min 0 W/m 4,5 km/h (1 Bft) 97,87 %
03.07.2018 00:44 19,3 C 17,2 C 17,8 C 49 % 1014,6 hPa 0,0 l/m 0 min 0 min 0 W/m 4,5 km/h (1 Bft) 100,00 %
03.07.2018 00:46 19,3 C 17,2 C 17,8 C 49 % 1014,6 hPa 0,0 l/m 0 min 0 min 0 W/m 2,3 km/h (1 Bft) 97,87 %
03.07.2018 00:48 19,2 C 17,2 C 17,8 C 49 % 1014,6 hPa 0,0 l/m 0 min 0 min 0 W/m 4,5 km/h (1 Bft) 97,87 %
03.07.2018 00:50 19,2 C 17,2 C 17,8 C 49 % 1014,4 hPa 0,0 l/m 0 min 0 min 0 W/m 4,5 km/h (1 Bft) 95,74 %
03.07.2018 00:52 19,2 C 17,2 C 17,8 C 49 % 1014,5 hPa 0,0 l/m 0 min 0 min 0 W/m 2,3 km/h (1 Bft) 97,87 %
03.07.2018 00:54 19,1 C 17,2 C 17,8 C 49 % 1014,6 hPa 0,0 l/m 0 min 0 min 0 W/m 4,5 km/h (1 Bft) 95,74 %
03.07.2018 00:56 19,1 C 17,2 C 17,8 C 50 % 1014,5 hPa 0,0 l/m 0 min 0 min 0 W/m 2,3 km/h (1 Bft) 97,83 %
03.07.2018 00:58 19,0 C 17,2 C 17,8 C 50 % 1014,6 hPa 0,0 l/m 0 min 0 min 0 W/m 2,3 km/h (1 Bft) 95,74 %
03.07.2018 01:00 18,9 C 17,2 C 17,8 C 50 % 1014,6 hPa 0,0 l/m 0 min 0 min 0 W/m 4,5 km/h (1 Bft) 97,87 %
03.07.2018 01:02 18,9 C 17,2 C 17,8 C 50 % 1014,6 hPa 0,0 l/m 0 min 0 min 0 W/m 4,5 km/h (1 Bft) 97,87 %
03.07.2018 01:04 18,8 C 16,7 C 17,2 C 50 % 1014,6 hPa 0,0 l/m 0 min 0 min 0 W/m 2,3 km/h (1 Bft) 97,87 %
03.07.2018 01:06 18,8 C 16,7 C 17,2 C 50 % 1014,6 hPa 0,0 l/m 0 min 0 min 0 W/m 4,5 km/h (1 Bft) 97,87 %
03.07.2018 01:08 18,7 C 17,2 C 17,2 C 50 % 1014,4 hPa 0,0 l/m 0 min 0 min 0 W/m 2,3 km/h (1 Bft) 97,83 %
03.07.2018 01:10 18,7 C 17,2 C 17,2 C 50 % 1014,4 hPa 0,0 l/m 0 min 0 min 0 W/m 4,5 km/h (1 Bft) 97,87 %
03.07.2018 01:12 18,7 C 16,7 C 17,2 C 50 % 1014,5 hPa 0,0 l/m 0 min 0 min 0 W/m 4,5 km/h (1 Bft) 97,87 %
03.07.2018 01:14 18,6 C 16,7 C 17,2 C 50 % 1014,6 hPa 0,0 l/m 0 min 0 min 0 W/m 2,3 km/h (1 Bft) 95,74 %
03.07.2018 01:16 18,6 C 16,7 C 17,2 C 50 % 1014,6 hPa 0,0 l/m 0 min 0 min 0 W/m 2,3 km/h (1 Bft) 97,87 %
03.07.2018 01:18 18,5 C 16,7 C 17,2 C 50 % 1014,6 hPa 0,0 l/m 0 min 0 min 0 W/m 0,0 km/h (0 Bft) 97,87 %
03.07.2018 01:20 18,4 C 16,7 C 17,2 C 50 % 1014,6 hPa 0,0 l/m 0 min 0 min 0 W/m 0,0 km/h (0 Bft) 97,83 %
03.07.2018 01:22 18,4 C 16,7 C 17,2 C 50 % 1014,5 hPa 0,0 l/m 0 min 0 min 0 W/m 0,0 km/h (0 Bft) 98,11 %
03.07.2018 01:24 18,4 C 16,7 C 17,2 C 50 % 1014,5 hPa 0,0 l/m 0 min 0 min 0 W/m 0,0 km/h (0 Bft) 97,22 %
03.07.2018 01:26 18,3 C 16,7 C 17,2 C 50 % 1014,5 hPa 0,0 l/m 0 min 0 min 0 W/m 0,0 km/h (0 Bft) 100,00 %
03.07.2018 01:28 18,3 C 16,7 C 17,2 C 50 % 1014,5 hPa 0,0 l/m 0 min 0 min 0 W/m 0,0 km/h (0 Bft) 97,87 %
03.07.2018 01:30 18,2 C 17,2 C 17,2 C 50 % 1014,6 hPa 0,0 l/m 0 min 0 min 0 W/m 0,0 km/h (0 Bft) 95,74 %
03.07.2018 01:32 18,2 C 16,7 C 17,2 C 51 % 1014,6 hPa 0,0 l/m 0 min 0 min 0 W/m 0,0 km/h (0 Bft) 97,67 %
03.07.2018 01:34 18,2 C 16,7 C 17,2 C 51 % 1014,6 hPa 0,0 l/m 0 min 0 min 0 W/m 0,0 km/h (0 Bft) 100,00 %
03.07.2018 01:36 18,2 C 16,7 C 17,2 C 51 % 1014,6 hPa 0,0 l/m 0 min 0 min 0 W/m 0,0 km/h (0 Bft) 98,31 %
03.07.2018 01:38 18,1 C 16,7 C 17,2 C 51 % 1014,6 hPa 0,0 l/m 0 min 0 min 0 W/m 0,0 km/h (0 Bft) 100,00 %
03.07.2018 01:40 18,1 C 16,7 C 17,2 C 52 % 1014,5 hPa 0,0 l/m 0 min 0 min 0 W/m 0,0 km/h (0 Bft) 98,31 %
03.07.2018 01:42 18,1 C 16,7 C 17,2 C 52 % 1014,5 hPa 0,0 l/m 0 min 0 min 0 W/m 0,0 km/h (0 Bft) 100,00 %
03.07.2018 01:44 18,0 C 16,7 C 16,7 C 52 % 1014,4 hPa 0,0 l/m 0 min 0 min 0 W/m 0,0 km/h (0 Bft) 100,00 %
03.07.2018 01:46 18,0 C 16,7 C 16,7 C 52 % 1014,4 hPa 0,0 l/m 0 min 0 min 0 W/m 0,0 km/h (0 Bft) 100,00 %
03.07.2018 01:48 17,9 C 16,7 C 16,7 C 52 % 1014,6 hPa 0,0 l/m 0 min 0 min 0 W/m 0,0 km/h (0 Bft) 97,87 %
03.07.2018 01:50 17,9 C 16,7 C 16,7 C 52 % 1014,6 hPa 0,0 l/m 0 min 0 min 0 W/m 0,0 km/h (0 Bft) 97,87 %
03.07.2018 01:52 17,9 C 16,1 C 16,7 C 52 % 1014,5 hPa 0,0 l/m 0 min 0 min 0 W/m 0,0 km/h (0 Bft) 93,62 %
03.07.2018 01:54 17,9 C 16,1 C 16,7 C 53 % 1014,6 hPa 0,0 l/m 0 min 0 min 0 W/m 0,0 km/h (0 Bft) 94,29 %
03.07.2018 01:56 17,8 C 16,1 C 16,7 C 53 % 1014,5 hPa 0,0 l/m 0 min 0 min 0 W/m 0,0 km/h (0 Bft) 96,55 %
03.07.2018 01:58 17,8 C 16,1 C 16,7 C 53 % 1014,5 hPa 0,0 l/m 0 min 0 min 0 W/m 0,0 km/h (0 Bft) 95,74 %
03.07.2018 02:00 17,8 C 16,1 C 16,7 C 53 % 1014,4 hPa 0,0 l/m 0 min 0 min 0 W/m 0,0 km/h (0 Bft) 91,43 %
03.07.2018 02:02 17,7 C 16,1 C 16,7 C 53 % 1014,5 hPa 0,0 l/m 0 min 0 min 0 W/m 0,0 km/h (0 Bft) 93,88 %
03.07.2018 02:04 17,7 C 16,1 C 16,7 C 53 % 1014,6 hPa 0,0 l/m 0 min 0 min 0 W/m 0,0 km/h (0 Bft) 95,74 %
03.07.2018 02:06 17,7 C 16,1 C 16,7 C 53 % 1014,6 hPa 0,0 l/m 0 min 0 min 0 W/m 0,0 km/h (0 Bft) 93,62 %
03.07.2018 02:08 17,6 C 16,1 C 16,7 C 53 % 1014,6 hPa 0,0 l/m 0 min 0 min 0 W/m 0,0 km/h (0 Bft) 94,83 %
03.07.2018 02:10 17,6 C 16,1 C 16,7 C 54 % 1014,6 hPa 0,0 l/m 0 min 0 min 0 W/m 0,0 km/h (0 Bft) 97,14 %
03.07.2018 02:12 17,6 C 15,6 C 16,7 C 54 % 1014,6 hPa 0,0 l/m 0 min 0 min 0 W/m 0,0 km/h (0 Bft) 95,74 %
03.07.2018 02:14 17,5 C 15,6 C 16,7 C 55 % 1014,5 hPa 0,0 l/m 0 min 0 min 0 W/m 0,0 km/h (0 Bft) 95,74 %
03.07.2018 02:16 17,4 C 15,6 C 16,7 C 54 % 1014,5 hPa 0,0 l/m 0 min 0 min 0 W/m 0,0 km/h (0 Bft) 94,92 %
03.07.2018 02:18 17,4 C 15,6 C 16,1 C 54 % 1014,5 hPa 0,0 l/m 0 min 0 min 0 W/m 0,0 km/h (0 Bft) 94,29 %
03.07.2018 02:20 17,4 C 15,6 C 16,1 C 54 % 1014,6 hPa 0,0 l/m 0 min 0 min 0 W/m 0,0 km/h (0 Bft) 94,83 %
03.07.2018 02:22 17,3 C 15,6 C 16,1 C 54 % 1014,6 hPa 0,0 l/m 0 min 0 min 0 W/m 0,0 km/h (0 Bft) 95,74 %
03.07.2018 02:24 17,3 C 16,1 C 16,1 C 54 % 1014,6 hPa 0,0 l/m 0 min 0 min 0 W/m 0,0 km/h (0 Bft) 95,74 %
03.07.2018 02:26 17,3 C 15,6 C 16,1 C 57 % 1014,7 hPa 0,0 l/m 0 min 0 min 0 W/m 0,0 km/h (0 Bft) 95,74 %
03.07.2018 02:28 17,2 C 15,6 C 16,1 C 57 % 1014,7 hPa 0,0 l/m 0 min 0 min 0 W/m 0,0 km/h (0 Bft) 95,74 %
03.07.2018 02:30 17,2 C 15,6 C 15,6 C 57 % 1014,5 hPa 0,0 l/m 0 min 0 min 0 W/m 0,0 km/h (0 Bft) 94,29 %
03.07.2018 02:32 17,1 C 15,0 C 15,6 C 57 % 1014,6 hPa 0,0 l/m 0 min 0 min 0 W/m 0,0 km/h (0 Bft) 94,83 %
03.07.2018 02:34 17,1 C 15,0 C 15,6 C 57 % 1014,6 hPa 0,0 l/m 0 min 0 min 0 W/m 0,0 km/h (0 Bft) 95,74 %
03.07.2018 02:36 17,1 C 15,0 C 15,0 C 58 % 1014,6 hPa 0,0 l/m 0 min 0 min 0 W/m 0,0 km/h (0 Bft) 94,29 %
03.07.2018 02:38 17,0 C 14,4 C 15,0 C 58 % 1014,6 hPa 0,0 l/m 0 min 0 min 0 W/m 0,0 km/h (0 Bft) 94,92 %
03.07.2018 02:40 16,9 C 14,4 C 15,0 C 58 % 1014,6 hPa 0,0 l/m 0 min 0 min 0 W/m 0,0 km/h (0 Bft) 97,87 %
03.07.2018 02:42 16,9 C 15,0 C 15,0 C 57 % 1014,6 hPa 0,0 l/m 0 min 0 min 0 W/m 0,0 km/h (0 Bft) 97,14 %
03.07.2018 02:44 16,8 C 15,0 C 15,0 C 56 % 1014,7 hPa 0,0 l/m 0 min 0 min 0 W/m 0,0 km/h (0 Bft) 97,83 %
03.07.2018 02:46 16,8 C 15,0 C 15,6 C 56 % 1014,6 hPa 0,0 l/m 0 min 0 min 0 W/m 0,0 km/h (0 Bft) 95,74 %
03.07.2018 02:48 16,7 C 15,0 C 15,6 C 56 % 1014,6 hPa 0,0 l/m 0 min 0 min 0 W/m 0,0 km/h (0 Bft) 98,31 %
03.07.2018 02:50 16,7 C 15,0 C 15,6 C 56 % 1014,6 hPa 0,0 l/m 0 min 0 min 0 W/m 0,0 km/h (0 Bft) 97,87 %
03.07.2018 02:52 16,7 C 15,0 C 15,0 C 57 % 1014,6 hPa 0,0 l/m 0 min 0 min 0 W/m 0,0 km/h (0 Bft) 95,65 %
03.07.2018 02:54 16,6 C 14,4 C 15,0 C 58 % 1014,6 hPa 0,0 l/m 0 min 0 min 0 W/m 0,0 km/h (0 Bft) 97,22 %
03.07.2018 02:56 16,6 C 14,4 C 15,0 C 59 % 1014,6 hPa 0,0 l/m 0 min 0 min 0 W/m 0,0 km/h (0 Bft) 94,83 %
03.07.2018 02:58 16,5 C 14,4 C 15,0 C 59 % 1014,6 hPa 0,0 l/m 0 min 0 min 0 W/m 0,0 km/h (0 Bft) 100,00 %
03.07.2018 03:00 16,5 C 14,4 C 15,0 C 59 % 1014,6 hPa 0,0 l/m 0 min 0 min 0 W/m 0,0 km/h (0 Bft) 95,74 %
03.07.2018 03:02 16,4 C 14,4 C 15,0 C 59 % 1014,6 hPa 0,0 l/m 0 min 0 min 0 W/m 0,0 km/h (0 Bft) 93,62 %
03.07.2018 03:04 16,4 C 14,4 C 15,0 C 59 % 1014,6 hPa 0,0 l/m 0 min 0 min 0 W/m 0,0 km/h (0 Bft) 93,10 %
03.07.2018 03:06 16,3 C 14,4 C 15,0 C 59 % 1014,5 hPa 0,0 l/m 0 min 0 min 0 W/m 0,0 km/h (0 Bft) 97,22 %
03.07.2018 03:08 16,3 C 14,4 C 15,0 C 58 % 1014,6 hPa 0,0 l/m 0 min 0 min 0 W/m 0,0 km/h (0 Bft) 97,83 %
03.07.2018 03:10 16,2 C 14,4 C 15,0 C 58 % 1014,6 hPa 0,0 l/m 0 min 0 min 0 W/m 0,0 km/h (0 Bft) 93,62 %
03.07.2018 03:12 16,2 C 14,4 C 15,0 C 59 % 1014,6 hPa 0,0 l/m 0 min 0 min 0 W/m 0,0 km/h (0 Bft) 97,87 %
03.07.2018 03:14 16,2 C 14,4 C 15,0 C 59 % 1014,6 hPa 0,0 l/m 0 min 0 min 0 W/m 0,0 km/h (0 Bft) 97,87 %
03.07.2018 03:16 16,1 C 14,4 C 15,0 C 59 % 1014,6 hPa 0,0 l/m 0 min 0 min 0 W/m 0,0 km/h (0 Bft) 100,00 %
03.07.2018 03:18 16,1 C 14,4 C 15,0 C 59 % 1014,6 hPa 0,0 l/m 0 min 0 min 0 W/m 0,0 km/h (0 Bft) 97,83 %
03.07.2018 03:20 16,0 C 14,4 C 15,0 C 59 % 1014,6 hPa 0,0 l/m 0 min 0 min 0 W/m 0,0 km/h (0 Bft) 91,49 %
03.07.2018 03:22 15,9 C 14,4 C 14,4 C 59 % 1014,6 hPa 0,0 l/m 0 min 0 min 0 W/m 0,0 km/h (0 Bft) 97,87 %
03.07.2018 03:24 15,9 C 14,4 C 14,4 C 60 % 1014,5 hPa 0,0 l/m 0 min 0 min 0 W/m 0,0 km/h (0 Bft) 97,87 %
03.07.2018 03:26 15,9 C 14,4 C 14,4 C 60 % 1014,6 hPa 0,0 l/m 0 min 0 min 0 W/m 0,0 km/h (0 Bft) 97,87 %
03.07.2018 03:28 15,8 C 13,9 C 14,4 C 60 % 1014,6 hPa 0,0 l/m 0 min 0 min 0 W/m 0,0 km/h (0 Bft) 97,87 %
03.07.2018 03:30 15,8 C 13,9 C 13,9 C 61 % 1014,6 hPa 0,0 l/m 0 min 0 min 0 W/m 0,0 km/h (0 Bft) 95,74 %
03.07.2018 03:32 15,8 C 14,4 C 13,9 C 60 % 1014,6 hPa 0,0 l/m 0 min 0 min 0 W/m 0,0 km/h (0 Bft) 97,83 %
03.07.2018 03:34 15,7 C 14,4 C 13,9 C 60 % 1014,7 hPa 0,0 l/m 0 min 0 min 0 W/m 0,0 km/h (0 Bft) 97,87 %
03.07.2018 03:36 15,7 C 14,4 C 13,9 C 60 % 1014,7 hPa 0,0 l/m 0 min 0 min 0 W/m 0,0 km/h (0 Bft) 97,87 %
03.07.2018 03:38 15,7 C 14,4 C 13,9 C 61 % 1014,7 hPa 0,0 l/m 0 min 0 min 0 W/m 0,0 km/h (0 Bft) 97,87 %
03.07.2018 03:40 15,6 C 14,4 C 13,9 C 61 % 1014,6 hPa 0,0 l/m 0 min 0 min 0 W/m 0,0 km/h (0 Bft) 95,74 %
03.07.2018 03:42 15,6 C 14,4 C 13,9 C 61 % 1014,7 hPa 0,0 l/m 0 min 0 min 0 W/m 0,0 km/h (0 Bft) 97,83 %
03.07.2018 03:44 15,5 C 14,4 C 13,9 C 61 % 1014,6 hPa 0,0 l/m 0 min 0 min 0 W/m 0,0 km/h (0 Bft) 97,87 %
03.07.2018 03:46 15,5 C 14,4 C 14,4 C 61 % 1014,6 hPa 0,0 l/m 0 min 0 min 0 W/m 0,0 km/h (0 Bft) 95,74 %
03.07.2018 03:48 15,4 C 14,4 C 14,4 C 60 % 1014,7 hPa 0,0 l/m 0 min 0 min 0 W/m 0,0 km/h (0 Bft) 97,87 %
03.07.2018 03:50 15,4 C 14,4 C 14,4 C 60 % 1014,7 hPa 0,0 l/m 0 min 0 min 0 W/m 0,0 km/h (0 Bft) 95,74 %
03.07.2018 03:52 15,4 C 14,4 C 14,4 C 60 % 1014,6 hPa 0,0 l/m 0 min 0 min 0 W/m 0,0 km/h (0 Bft) 97,87 %
03.07.2018 03:54 15,3 C 14,4 C 14,4 C 61 % 1014,6 hPa 0,0 l/m 0 min 0 min 0 W/m 0,0 km/h (0 Bft) 100,00 %
03.07.2018 03:56 15,3 C 13,9 C 14,4 C 61 % 1014,6 hPa 0,0 l/m 0 min 0 min 0 W/m 0,0 km/h (0 Bft) 100,00 %
03.07.2018 03:58 15,3 C 13,9 C 14,4 C 61 % 1014,6 hPa 0,0 l/m 0 min 0 min 0 W/m 0,0 km/h (0 Bft) 100,00 %
03.07.2018 04:00 15,3 C 13,9 C 14,4 C 62 % 1014,7 hPa 0,0 l/m 0 min 0 min 0 W/m 0,0 km/h (0 Bft) 100,00 %
03.07.2018 04:02 15,2 C 13,9 C 14,4 C 62 % 1014,6 hPa 0,0 l/m 0 min 0 min 0 W/m 0,0 km/h (0 Bft) 100,00 %
03.07.2018 04:04 15,2 C 13,9 C 14,4 C 62 % 1014,6 hPa 0,0 l/m 0 min 0 min 0 W/m 0,0 km/h (0 Bft) 97,87 %
03.07.2018 04:06 15,2 C 13,9 C 14,4 C 62 % 1014,6 hPa 0,0 l/m 0 min 0 min 0 W/m 0,0 km/h (0 Bft) 97,83 %
03.07.2018 04:08 15,2 C 13,9 C 13,9 C 62 % 1014,5 hPa 0,0 l/m 0 min 0 min 0 W/m 0,0 km/h (0 Bft) 95,74 %
03.07.2018 04:10 15,1 C 13,9 C 13,9 C 62 % 1014,5 hPa 0,0 l/m 0 min 0 min 0 W/m 0,0 km/h (0 Bft) 97,87 %
03.07.2018 04:12 15,1 C 13,9 C 13,9 C 62 % 1014,5 hPa 0,0 l/m 0 min 0 min 0 W/m 0,0 km/h (0 Bft) 100,00 %
03.07.2018 04:14 15,1 C 13,9 C 13,9 C 63 % 1014,5 hPa 0,0 l/m 0 min 0 min 0 W/m 0,0 km/h (0 Bft) 100,00 %
03.07.2018 04:16 15,0 C 13,9 C 13,9 C 63 % 1014,4 hPa 0,0 l/m 0 min 0 min 0 W/m 0,0 km/h (0 Bft) 100,00 %
03.07.2018 04:18 15,0 C 13,9 C 13,9 C 63 % 1014,5 hPa 0,0 l/m 0 min 0 min 0 W/m 0,0 km/h (0 Bft) 100,00 %
03.07.2018 04:20 14,9 C 13,9 C 13,9 C 63 % 1014,4 hPa 0,0 l/m 0 min 0 min 0 W/m 0,0 km/h (0 Bft) 100,00 %
03.07.2018 04:22 14,9 C 13,9 C 13,9 C 63 % 1014,5 hPa 0,0 l/m 0 min 0 min 0 W/m 0,0 km/h (0 Bft) 97,87 %
03.07.2018 04:24 14,9 C 13,9 C 13,9 C 63 % 1014,6 hPa 0,0 l/m 0 min 0 min 0 W/m 0,0 km/h (0 Bft) 97,87 %
03.07.2018 04:26 14,9 C 13,9 C 13,9 C 63 % 1014,5 hPa 0,0 l/m 0 min 0 min 0 W/m 0,0 km/h (0 Bft) 100,00 %
03.07.2018 04:28 14,8 C 13,9 C 13,9 C 63 % 1014,3 hPa 0,0 l/m 0 min 0 min 0 W/m 0,0 km/h (0 Bft) 100,00 %
03.07.2018 04:30 14,8 C 13,9 C 13,9 C 63 % 1014,3 hPa 0,0 l/m 0 min 0 min 0 W/m 0,0 km/h (0 Bft) 100,00 %
03.07.2018 04:32 14,8 C 13,9 C 13,9 C 64 % 1014,5 hPa 0,0 l/m 0 min 0 min 0 W/m 0,0 km/h (0 Bft) 97,87 %
03.07.2018 04:34 14,8 C 13,3 C 13,9 C 65 % 1014,4 hPa 0,0 l/m 0 min 0 min 0 W/m 0,0 km/h (0 Bft) 97,87 %
03.07.2018 04:36 14,8 C 13,3 C 13,9 C 64 % 1014,3 hPa 0,0 l/m 0 min 0 min 0 W/m 0,0 km/h (0 Bft) 100,00 %
03.07.2018 04:38 14,7 C 13,3 C 13,9 C 64 % 1014,4 hPa 0,0 l/m 0 min 0 min 0 W/m 0,0 km/h (0 Bft) 100,00 %
03.07.2018 04:40 14,7 C 13,3 C 13,9 C 65 % 1014,3 hPa 0,0 l/m 0 min 0 min 0 W/m 0,0 km/h (0 Bft) 100,00 %
03.07.2018 04:42 14,7 C 13,3 C 13,9 C 65 % 1014,3 hPa 0,0 l/m 0 min 0 min 0 W/m 0,0 km/h (0 Bft) 100,00 %
03.07.2018 04:44 14,7 C 13,3 C 13,9 C 65 % 1014,3 hPa 0,0 l/m 0 min 0 min 0 W/m 0,0 km/h (0 Bft) 100,00 %
03.07.2018 04:46 14,6 C 13,3 C 13,9 C 65 % 1014,3 hPa 0,0 l/m 0 min 0 min 0 W/m 0,0 km/h (0 Bft) 100,00 %
03.07.2018 04:48 14,6 C 13,3 C 13,9 C 66 % 1014,3 hPa 0,0 l/m 0 min 0 min 0 W/m 0,0 km/h (0 Bft) 100,00 %
03.07.2018 04:50 14,6 C 13,3 C 14,4 C 66 % 1014,3 hPa 0,0 l/m 0 min 0 min 0 W/m 0,0 km/h (0 Bft) 100,00 %
03.07.2018 04:52 14,6 C 13,3 C 13,9 C 66 % 1014,3 hPa 0,0 l/m 0 min 0 min 0 W/m 0,0 km/h (0 Bft) 100,00 %
03.07.2018 04:54 14,6 C 13,3 C 13,9 C 66 % 1014,3 hPa 0,0 l/m 0 min 0 min 0 W/m 0,0 km/h (0 Bft) 97,87 %
03.07.2018 04:56 14,5 C 13,3 C 13,9 C 66 % 1014,3 hPa 0,0 l/m 0 min 0 min 0 W/m 0,0 km/h (0 Bft) 100,00 %
03.07.2018 04:58 14,4 C 13,3 C 13,9 C 66 % 1014,3 hPa 0,0 l/m 0 min 0 min 0 W/m 0,0 km/h (0 Bft) 100,00 %
03.07.2018 05:00 14,4 C 13,3 C 13,9 C 66 % 1014,2 hPa 0,0 l/m 0 min 0 min 0 W/m 0,0 km/h (0 Bft) 97,87 %
03.07.2018 05:02 14,4 C 13,3 C 13,9 C 67 % 1014,2 hPa 0,0 l/m 0 min 0 min 0 W/m 0,0 km/h (0 Bft) 97,87 %
03.07.2018 05:04 14,4 C 13,3 C 13,9 C 67 % 1014,2 hPa 0,0 l/m 0 min 0 min 0 W/m 0,0 km/h (0 Bft) 100,00 %
03.07.2018 05:06 14,4 C 13,3 C 13,9 C 67 % 1014,2 hPa 0,0 l/m 0 min 0 min 0 W/m 0,0 km/h (0 Bft) 97,87 %
03.07.2018 05:08 14,3 C 13,3 C 13,9 C 67 % 1014,2 hPa 0,0 l/m 0 min 0 min 0 W/m 2,3 km/h (1 Bft) 95,65 %
03.07.2018 05:10 14,3 C 13,3 C 13,9 C 67 % 1014,2 hPa 0,0 l/m 0 min 0 min 0 W/m 2,3 km/h (1 Bft) 97,87 %
03.07.2018 05:12 14,3 C 13,3 C 13,9 C 67 % 1014,2 hPa 0,0 l/m 0 min 0 min 0 W/m 0,0 km/h (0 Bft) 97,87 %
03.07.2018 05:14 14,2 C 13,3 C 13,9 C 68 % 1014,1 hPa 0,0 l/m 0 min 0 min 0 W/m 4,5 km/h (1 Bft) 95,74 %
03.07.2018 05:16 14,2 C 13,3 C 13,9 C 68 % 1014,1 hPa 0,0 l/m 0 min 0 min 0 W/m 2,3 km/h (1 Bft) 97,87 %
03.07.2018 05:18 14,2 C 13,3 C 13,9 C 68 % 1014,0 hPa 0,0 l/m 0 min 0 min 0 W/m 2,3 km/h (1 Bft) 93,48 %
03.07.2018 05:20 14,2 C 12,8 C 13,9 C 68 % 1014,0 hPa 0,0 l/m 0 min 0 min 3 W/m 2,3 km/h (1 Bft) 95,74 %
03.07.2018 05:22 14,2 C 12,8 C 13,9 C 68 % 1014,0 hPa 0,0 l/m 0 min 0 min 5 W/m 2,3 km/h (1 Bft) 97,92 %
03.07.2018 05:24 14,2 C 12,8 C 13,9 C 69 % 1014,0 hPa 0,0 l/m 0 min 0 min 5 W/m 4,5 km/h (1 Bft) 97,87 %
03.07.2018 05:26 14,2 C 13,3 C 13,9 C 69 % 1014,0 hPa 0,0 l/m 0 min 0 min 5 W/m 4,5 km/h (1 Bft) 95,74 %
03.07.2018 05:28 14,2 C 13,3 C 13,9 C 69 % 1014,0 hPa 0,0 l/m 0 min 0 min 6 W/m 2,3 km/h (1 Bft) 93,62 %
03.07.2018 05:30 14,2 C 13,3 C 13,9 C 69 % 1014,0 hPa 0,0 l/m 0 min 0 min 7 W/m 4,5 km/h (1 Bft) 95,65 %
03.07.2018 05:32 14,2 C 13,3 C 13,9 C 69 % 1014,0 hPa 0,0 l/m 0 min 0 min 7 W/m 2,3 km/h (1 Bft) 97,87 %
03.07.2018 05:34 14,2 C 12,8 C 13,9 C 70 % 1014,0 hPa 0,0 l/m 0 min 0 min 7 W/m 4,5 km/h (1 Bft) 95,74 %
03.07.2018 05:35 14,2 C 12,8 C 13,9 C 70 % 1014,0 hPa 0,0 l/m 0 min 0 min 8 W/m 4,5 km/h (1 Bft) 100,00 %
03.07.2018 05:40 14,2 C 12,8 C 13,9 C 70 % 1014,0 hPa 0,0 l/m 0 min 0 min 9 W/m 4,5 km/h (1 Bft) 100,00 %
03.07.2018 05:42 14,1 C 13,3 C 13,9 C 70 % 1014,1 hPa 0,0 l/m 0 min 0 min 11 W/m 2,3 km/h (1 Bft) 96,00 %
03.07.2018 05:44 14,1 C 12,8 C 13,9 C 70 % 1014,1 hPa 0,0 l/m 0 min 0 min 11 W/m 2,3 km/h (1 Bft) 96,00 %
03.07.2018 05:46 14,1 C 12,8 C 13,9 C 71 % 1014,1 hPa 0,0 l/m 0 min 0 min 11 W/m 4,5 km/h (1 Bft) 95,74 %
03.07.2018 05:48 14,1 C 12,8 C 13,9 C 71 % 1014,2 hPa 0,0 l/m 0 min 0 min 12 W/m 4,5 km/h (1 Bft) 97,83 %
03.07.2018 05:50 14,1 C 12,8 C 13,9 C 71 % 1014,1 hPa 0,0 l/m 0 min 0 min 12 W/m 4,5 km/h (1 Bft) 93,62 %
03.07.2018 05:52 14,0 C 12,8 C 13,9 C 72 % 1014,2 hPa 0,0 l/m 0 min 0 min 12 W/m 2,3 km/h (1 Bft) 95,74 %
03.07.2018 05:54 14,0 C 12,8 C 13,9 C 72 % 1014,2 hPa 0,0 l/m 0 min 0 min 12 W/m 0,0 km/h (0 Bft) 95,74 %
03.07.2018 05:56 14,0 C 12,8 C 13,9 C 72 % 1014,2 hPa 0,0 l/m 0 min 0 min 14 W/m 0,0 km/h (0 Bft) 93,62 %
03.07.2018 05:58 14,0 C 12,8 C 13,9 C 72 % 1014,2 hPa 0,0 l/m 0 min 0 min 14 W/m 0,0 km/h (0 Bft) 95,74 %
03.07.2018 06:00 13,9 C 12,8 C 13,9 C 72 % 1014,2 hPa 0,0 l/m 0 min 0 min 14 W/m 0,0 km/h (0 Bft) 97,83 %
03.07.2018 06:02 13,9 C 12,8 C 13,9 C 72 % 1014,3 hPa 0,0 l/m 0 min 0 min 15 W/m 0,0 km/h (0 Bft) 97,87 %
03.07.2018 06:04 13,9 C 12,8 C 13,9 C 73 % 1014,3 hPa 0,0 l/m 0 min 0 min 16 W/m 2,3 km/h (1 Bft) 95,74 %
03.07.2018 06:07 13,9 C 13,3 C 13,9 C 72 % 1014,4 hPa 0,0 l/m 0 min 0 min 16 W/m 4,5 km/h (1 Bft) 95,74 %
03.07.2018 06:10 13,9 C 13,3 C 13,9 C 73 % 1014,4 hPa 0,0 l/m 0 min 0 min 17 W/m 4,5 km/h (1 Bft) 97,71 %
03.07.2018 06:12 13,9 C 13,3 C 13,9 C 73 % 1014,4 hPa 0,0 l/m 0 min 0 min 18 W/m 2,3 km/h (1 Bft) 95,74 %
03.07.2018 06:14 13,9 C 13,3 C 13,9 C 73 % 1014,4 hPa 0,0 l/m 0 min 0 min 18 W/m 2,3 km/h (1 Bft) 100,00 %
03.07.2018 06:16 13,9 C 13,3 C 13,9 C 74 % 1014,5 hPa 0,0 l/m 0 min 0 min 19 W/m 0,0 km/h (0 Bft) 100,00 %
03.07.2018 06:18 13,9 C 13,3 C 13,9 C 74 % 1014,6 hPa 0,0 l/m 0 min 0 min 19 W/m 0,0 km/h (0 Bft) 100,00 %
03.07.2018 06:20 13,9 C 13,3 C 13,9 C 74 % 1014,7 hPa 0,0 l/m 0 min 0 min 19 W/m 0,0 km/h (0 Bft) 100,00 %
03.07.2018 06:22 13,9 C 13,3 C 13,9 C 74 % 1014,6 hPa 0,0 l/m 0 min 0 min 19 W/m 0,0 km/h (0 Bft) 97,87 %
03.07.2018 06:24 13,9 C 13,3 C 13,9 C 74 % 1014,6 hPa 0,0 l/m 0 min 0 min 21 W/m 0,0 km/h (0 Bft) 100,00 %
03.07.2018 06:26 13,9 C 13,3 C 13,3 C 75 % 1014,6 hPa 0,0 l/m 0 min 0 min 21 W/m 0,0 km/h (0 Bft) 100,00 %
03.07.2018 06:28 13,9 C 12,8 C 13,3 C 74 % 1014,7 hPa 0,0 l/m 0 min 0 min 21 W/m 0,0 km/h (0 Bft) 100,00 %
03.07.2018 06:30 13,9 C 12,8 C 13,3 C 74 % 1014,7 hPa 0,0 l/m 0 min 0 min 21 W/m 0,0 km/h (0 Bft) 100,00 %
03.07.2018 06:32 13,9 C 12,8 C 13,3 C 75 % 1014,6 hPa 0,0 l/m 0 min 0 min 21 W/m 0,0 km/h (0 Bft) 97,92 %
03.07.2018 06:34 13,9 C 12,8 C 13,3 C 75 % 1014,7 hPa 0,0 l/m 0 min 0 min 21 W/m 0,0 km/h (0 Bft) 97,87 %
03.07.2018 06:36 13,8 C 12,8 C 13,3 C 75 % 1014,7 hPa 0,0 l/m 0 min 0 min 22 W/m 0,0 km/h (0 Bft) 95,74 %
03.07.2018 06:38 13,8 C 12,8 C 13,3 C 75 % 1014,6 hPa 0,0 l/m 0 min 0 min 23 W/m 0,0 km/h (0 Bft) 97,83 %
03.07.2018 06:40 13,8 C 12,8 C 13,3 C 75 % 1014,6 hPa 0,0 l/m 0 min 0 min 24 W/m 0,0 km/h (0 Bft) 100,00 %
03.07.2018 06:42 13,8 C 12,8 C 13,3 C 76 % 1014,7 hPa 0,0 l/m 0 min 0 min 25 W/m 0,0 km/h (0 Bft) 97,87 %
03.07.2018 06:44 13,8 C 12,8 C 13,3 C 75 % 1014,7 hPa 0,0 l/m 0 min 0 min 25 W/m 0,0 km/h (0 Bft) 97,87 %
03.07.2018 06:46 13,8 C 12,8 C 13,3 C 75 % 1014,6 hPa 0,0 l/m 0 min 0 min 25 W/m 0,0 km/h (0 Bft) 97,87 %
03.07.2018 06:48 13,8 C 12,8 C 13,3 C 75 % 1014,6 hPa 0,0 l/m 0 min 0 min 26 W/m 0,0 km/h (0 Bft) 97,87 %
03.07.2018 06:50 13,8 C 13,3 C 13,3 C 76 % 1014,7 hPa 0,0 l/m 0 min 0 min 26 W/m 0,0 km/h (0 Bft) 98,28 %
03.07.2018 06:52 13,8 C 13,3 C 13,9 C 76 % 1014,7 hPa 0,0 l/m 0 min 0 min 26 W/m 0,0 km/h (0 Bft) 97,14 %
03.07.2018 06:54 13,8 C 13,3 C 13,9 C 76 % 1014,7 hPa 0,0 l/m 0 min 0 min 26 W/m 0,0 km/h (0 Bft) 97,87 %
03.07.2018 06:56 13,8 C 13,3 C 13,9 C 76 % 1014,6 hPa 0,0 l/m 0 min 0 min 26 W/m 0,0 km/h (0 Bft) 97,87 %
03.07.2018 06:58 13,8 C 13,3 C 13,9 C 76 % 1014,6 hPa 0,0 l/m 0 min 0 min 28 W/m 0,0 km/h (0 Bft) 97,87 %
03.07.2018 07:00 13,8 C 13,9 C 13,9 C 76 % 1014,6 hPa 0,0 l/m 0 min 0 min 26 W/m 0,0 km/h (0 Bft) 97,87 %
03.07.2018 07:02 13,8 C 13,9 C 14,4 C 76 % 1014,6 hPa 0,0 l/m 0 min 0 min 28 W/m 0,0 km/h (0 Bft) 98,00 %
03.07.2018 07:04 13,8 C 13,9 C 14,4 C 76 % 1014,6 hPa 0,0 l/m 0 min 0 min 28 W/m 0,0 km/h (0 Bft) 97,87 %
03.07.2018 07:06 13,7 C 13,9 C 14,4 C 76 % 1014,7 hPa 0,0 l/m 0 min 0 min 28 W/m 4,5 km/h (1 Bft) 97,87 %
03.07.2018 07:08 13,8 C 13,9 C 14,4 C 77 % 1014,6 hPa 0,0 l/m 0 min 0 min 29 W/m 4,5 km/h (1 Bft) 97,87 %
03.07.2018 07:10 13,8 C 13,9 C 14,4 C 76 % 1014,7 hPa 0,0 l/m 0 min 0 min 30 W/m 4,5 km/h (1 Bft) 97,14 %
03.07.2018 07:12 13,8 C 13,9 C 14,4 C 76 % 1014,7 hPa 0,0 l/m 0 min 0 min 32 W/m 4,5 km/h (1 Bft) 98,28 %
03.07.2018 07:14 13,8 C 14,4 C 14,4 C 76 % 1014,8 hPa 0,0 l/m 0 min 0 min 31 W/m 4,5 km/h (1 Bft) 97,87 %
03.07.2018 07:16 13,8 C 14,4 C 14,4 C 76 % 1014,8 hPa 0,0 l/m 0 min 0 min 32 W/m 4,5 km/h (1 Bft) 95,74 %
03.07.2018 07:18 13,8 C 14,4 C 14,4 C 76 % 1014,8 hPa 0,0 l/m 0 min 0 min 33 W/m 2,3 km/h (1 Bft) 97,87 %
03.07.2018 07:20 13,8 C 14,4 C 14,4 C 76 % 1014,8 hPa 0,0 l/m 0 min 0 min 33 W/m 2,3 km/h (1 Bft) 97,87 %
03.07.2018 07:22 13,9 C 14,4 C 14,4 C 76 % 1014,8 hPa 0,0 l/m 0 min 0 min 34 W/m 2,3 km/h (1 Bft) 97,87 %
03.07.2018 07:24 13,9 C 14,4 C 14,4 C 77 % 1014,8 hPa 0,0 l/m 0 min 0 min 35 W/m 6,8 km/h (2 Bft) 97,83 %
03.07.2018 07:26 13,9 C 14,4 C 15,0 C 77 % 1014,8 hPa 0,0 l/m 0 min 0 min 36 W/m 4,5 km/h (1 Bft) 97,87 %
03.07.2018 07:28 13,9 C 14,4 C 15,0 C 76 % 1014,8 hPa 0,0 l/m 0 min 0 min 37 W/m 4,5 km/h (1 Bft) 97,87 %
03.07.2018 07:30 14,1 C 15,0 C 15,0 C 76 % 1014,8 hPa 0,0 l/m 0 min 0 min 37 W/m 4,5 km/h (1 Bft) 97,87 %
03.07.2018 07:32 14,1 C 15,0 C 15,0 C 76 % 1014,8 hPa 0,0 l/m 0 min 0 min 37 W/m 6,8 km/h (2 Bft) 97,92 %
03.07.2018 07:34 14,1 C 15,0 C 15,0 C 76 % 1014,8 hPa 0,0 l/m 0 min 0 min 37 W/m 6,8 km/h (2 Bft) 97,83 %
03.07.2018 07:36 14,2 C 15,0 C 15,0 C 76 % 1014,8 hPa 0,0 l/m 0 min 0 min 38 W/m 4,5 km/h (1 Bft) 95,74 %
03.07.2018 07:38 14,2 C 15,0 C 15,0 C 76 % 1014,8 hPa 0,0 l/m 0 min 0 min 39 W/m 6,8 km/h (2 Bft) 95,74 %
03.07.2018 07:40 14,2 C 15,6 C 15,0 C 76 % 1014,8 hPa 0,0 l/m 0 min 0 min 39 W/m 6,8 km/h (2 Bft) 97,87 %
03.07.2018 07:42 14,2 C 15,6 C 15,0 C 76 % 1014,8 hPa 0,0 l/m 0 min 0 min 40 W/m 4,5 km/h (1 Bft) 97,87 %
03.07.2018 07:44 14,2 C 15,6 C 15,6 C 76 % 1014,8 hPa 0,0 l/m 0 min 0 min 40 W/m 2,3 km/h (1 Bft) 93,62 %
03.07.2018 07:46 14,3 C 15,6 C 15,6 C 76 % 1014,9 hPa 0,0 l/m 0 min 0 min 39 W/m 4,5 km/h (1 Bft) 95,65 %
03.07.2018 07:48 14,3 C 15,6 C 15,6 C 76 % 1014,9 hPa 0,0 l/m 0 min 0 min 40 W/m 4,5 km/h (1 Bft) 97,87 %
03.07.2018 07:50 14,4 C 15,6 C 15,6 C 75 % 1015,0 hPa 0,0 l/m 0 min 0 min 40 W/m 4,5 km/h (1 Bft) 97,87 %
03.07.2018 07:52 14,4 C 15,6 C 15,6 C 76 % 1014,9 hPa 0,0 l/m 0 min 0 min 42 W/m 4,5 km/h (1 Bft) 95,74 %
03.07.2018 07:54 14,5 C 16,1 C 15,6 C 76 % 1014,8 hPa 0,0 l/m 0 min 0 min 42 W/m 4,5 km/h (1 Bft) 97,87 %
03.07.2018 07:56 14,6 C 16,1 C 15,6 C 76 % 1014,9 hPa 0,0 l/m 0 min 0 min 42 W/m 2,3 km/h (1 Bft) 97,87 %
03.07.2018 07:58 14,6 C 16,1 C 15,6 C 76 % 1014,9 hPa 0,0 l/m 0 min 0 min 43 W/m 4,5 km/h (1 Bft) 97,83 %
03.07.2018 08:00 14,7 C 16,7 C 15,6 C 76 % 1015,0 hPa 0,0 l/m 0 min 0 min 44 W/m 2,3 km/h (1 Bft) 97,87 %
03.07.2018 08:02 14,7 C 18,3 C 15,6 C 76 % 1014,9 hPa 0,0 l/m 0 min 0 min 44 W/m 4,5 km/h (1 Bft) 95,74 %
03.07.2018 08:04 14,8 C 18,9 C 15,6 C 76 % 1015,0 hPa 0,0 l/m 0 min 0 min 44 W/m 2,3 km/h (1 Bft) 97,87 %
03.07.2018 08:06 14,9 C 18,9 C 15,6 C 76 % 1015,0 hPa 0,0 l/m 0 min 0 min 45 W/m 4,5 km/h (1 Bft) 95,74 %
03.07.2018 08:08 14,9 C 19,4 C 16,1 C 76 % 1015,0 hPa 0,0 l/m 0 min 0 min 46 W/m 9,0 km/h (2 Bft) 97,87 %
03.07.2018 08:10 15,1 C 18,9 C 16,1 C 76 % 1014,9 hPa 0,0 l/m 0 min 0 min 56 W/m 4,5 km/h (1 Bft) 93,48 %
03.07.2018 08:12 15,2 C 19,4 C 16,1 C 75 % 1015,0 hPa 0,0 l/m 0 min 0 min 185 W/m 4,5 km/h (1 Bft) 93,62 %
03.07.2018 08:14 15,3 C 20,0 C 16,1 C 75 % 1015,0 hPa 0,0 l/m 2 min 0 min 300 W/m 2,3 km/h (1 Bft) 93,62 %
03.07.2018 08:16 15,4 C 19,4 C 16,1 C 75 % 1015,0 hPa 0,0 l/m 2 min 0 min 310 W/m 4,5 km/h (1 Bft) 95,74 %
03.07.2018 08:18 15,6 C 19,4 C 16,7 C 74 % 1015,0 hPa 0,0 l/m 2 min 0 min 319 W/m 4,5 km/h (1 Bft) 95,74 %
03.07.2018 08:20 15,7 C 19,4 C 16,7 C 74 % 1015,1 hPa 0,0 l/m 2 min 0 min 323 W/m 4,5 km/h (1 Bft) 95,65 %
03.07.2018 08:22 15,9 C 19,4 C 16,7 C 74 % 1015,0 hPa 0,0 l/m 2 min 0 min 330 W/m 4,5 km/h (1 Bft) 95,74 %
03.07.2018 08:24 16,1 C 19,4 C 16,7 C 73 % 1015,1 hPa 0,0 l/m 2 min 0 min 335 W/m 2,3 km/h (1 Bft) 91,49 %
03.07.2018 08:26 16,2 C 19,4 C 16,7 C 73 % 1015,0 hPa 0,0 l/m 2 min 0 min 341 W/m 4,5 km/h (1 Bft) 93,62 %
03.07.2018 08:28 16,4 C 19,4 C 16,7 C 73 % 1015,1 hPa 0,0 l/m 2 min 0 min 335 W/m 2,3 km/h (1 Bft) 95,74 %
03.07.2018 08:30 16,6 C 19,4 C 16,7 C 72 % 1015,0 hPa 0,0 l/m 2 min 0 min 334 W/m 4,5 km/h (1 Bft) 95,74 %
03.07.2018 08:32 16,7 C 19,4 C 16,7 C 73 % 1015,1 hPa 0,0 l/m 2 min 0 min 343 W/m 4,5 km/h (1 Bft) 95,65 %
03.07.2018 08:34 16,8 C 19,4 C 16,7 C 72 % 1015,0 hPa 0,0 l/m 2 min 0 min 286 W/m 4,5 km/h (1 Bft) 93,62 %
03.07.2018 08:36 16,9 C 19,4 C 16,7 C 71 % 1015,1 hPa 0,0 l/m 2 min 0 min 351 W/m 4,5 km/h (1 Bft) 95,74 %
03.07.2018 08:38 17,1 C 19,4 C 16,7 C 70 % 1015,1 hPa 0,0 l/m 2 min 0 min 366 W/m 2,3 km/h (1 Bft) 95,74 %
03.07.2018 08:40 17,3 C 20,0 C 17,2 C 70 % 1015,1 hPa 0,0 l/m 2 min 0 min 379 W/m 4,5 km/h (1 Bft) 95,74 %
03.07.2018 08:42 17,4 C 20,0 C 17,2 C 68 % 1015,0 hPa 0,0 l/m 2 min 0 min 385 W/m 4,5 km/h (1 Bft) 95,74 %
03.07.2018 08:44 17,6 C 20,0 C 17,8 C 67 % 1015,0 hPa 0,0 l/m 2 min 0 min 377 W/m 6,8 km/h (2 Bft) 97,83 %
03.07.2018 08:46 17,7 C 20,0 C 17,8 C 65 % 1015,1 hPa 0,0 l/m 2 min 0 min 392 W/m 6,8 km/h (2 Bft) 97,87 %
03.07.2018 08:48 17,8 C 20,0 C 17,8 C 65 % 1015,0 hPa 0,0 l/m 2 min 0 min 400 W/m 4,5 km/h (1 Bft) 97,87 %
03.07.2018 08:50 18,0 C 20,0 C 17,8 C 64 % 1015,0 hPa 0,0 l/m 2 min 0 min 406 W/m 4,5 km/h (1 Bft) 100,00 %
03.07.2018 08:52 18,1 C 20,6 C 17,8 C 65 % 1015,0 hPa 0,0 l/m 2 min 0 min 413 W/m 4,5 km/h (1 Bft) 100,00 %
03.07.2018 08:54 18,2 C 21,1 C 17,8 C 65 % 1015,0 hPa 0,0 l/m 2 min 0 min 418 W/m 4,5 km/h (1 Bft) 97,87 %
03.07.2018 08:56 18,3 C 20,6 C 18,3 C 65 % 1015,0 hPa 0,0 l/m 2 min 0 min 424 W/m 4,5 km/h (1 Bft) 100,00 %
03.07.2018 08:58 18,4 C 20,6 C 18,3 C 64 % 1015,0 hPa 0,0 l/m 2 min 0 min 429 W/m 2,3 km/h (1 Bft) 100,00 %
03.07.2018 09:00 18,5 C 21,1 C 18,3 C 63 % 1014,9 hPa 0,0 l/m 2 min 0 min 433 W/m 4,5 km/h (1 Bft) 100,00 %
03.07.2018 09:02 18,6 C 21,7 C 18,3 C 62 % 1014,9 hPa 0,0 l/m 2 min 0 min 438 W/m 4,5 km/h (1 Bft) 97,87 %
03.07.2018 09:04 18,7 C 21,7 C 18,3 C 61 % 1014,9 hPa 0,0 l/m 2 min 0 min 444 W/m 9,0 km/h (2 Bft) 97,87 %
03.07.2018 09:06 18,8 C 21,7 C 18,3 C 60 % 1015,0 hPa 0,0 l/m 2 min 0 min 449 W/m 4,5 km/h (1 Bft) 100,00 %
03.07.2018 09:08 18,9 C 22,2 C 18,9 C 60 % 1015,0 hPa 0,0 l/m 2 min 0 min 454 W/m 4,5 km/h (1 Bft) 100,00 %
03.07.2018 09:10 19,0 C 22,2 C 18,9 C 57 % 1015,0 hPa 0,0 l/m 2 min 0 min 459 W/m 4,5 km/h (1 Bft) 100,00 %
03.07.2018 09:12 19,1 C 22,2 C 18,9 C 57 % 1015,0 hPa 0,0 l/m 2 min 0 min 465 W/m 6,8 km/h (2 Bft) 97,87 %
03.07.2018 09:14 19,3 C 21,7 C 18,9 C 56 % 1014,9 hPa 0,0 l/m 2 min 0 min 469 W/m 11,3 km/h (2 Bft) 100,00 %
03.07.2018 09:16 19,4 C 21,7 C 18,9 C 56 % 1014,9 hPa 0,0 l/m 2 min 0 min 473 W/m 6,8 km/h (2 Bft) 97,87 %
03.07.2018 09:18 19,6 C 21,7 C 18,9 C 56 % 1014,9 hPa 0,0 l/m 2 min 0 min 480 W/m 4,5 km/h (1 Bft) 100,00 %
03.07.2018 09:20 19,7 C 22,2 C 18,9 C 55 % 1014,8 hPa 0,0 l/m 2 min 0 min 485 W/m 9,0 km/h (2 Bft) 100,00 %
03.07.2018 09:22 19,9 C 22,8 C 18,9 C 56 % 1014,8 hPa 0,0 l/m 2 min 0 min 490 W/m 6,8 km/h (2 Bft) 100,00 %
03.07.2018 09:24 20,1 C 22,8 C 18,9 C 57 % 1014,8 hPa 0,0 l/m 2 min 0 min 495 W/m 4,5 km/h (1 Bft) 100,00 %
03.07.2018 09:26 20,1 C 22,2 C 18,9 C 57 % 1014,8 hPa 0,0 l/m 2 min 0 min 500 W/m 4,5 km/h (1 Bft) 97,87 %
03.07.2018 09:28 20,2 C 22,2 C 18,9 C 54 % 1014,9 hPa 0,0 l/m 2 min 0 min 506 W/m 11,3 km/h (2 Bft) 97,87 %
03.07.2018 09:30 20,3 C 22,2 C 19,4 C 54 % 1014,9 hPa 0,0 l/m 2 min 0 min 511 W/m 6,8 km/h (2 Bft) 100,00 %
03.07.2018 09:32 20,5 C 22,2 C 19,4 C 55 % 1014,8 hPa 0,0 l/m 2 min 0 min 517 W/m 6,8 km/h (2 Bft) 100,00 %
03.07.2018 09:34 20,6 C 22,2 C 19,4 C 56 % 1014,8 hPa 0,0 l/m 2 min 0 min 522 W/m 4,5 km/h (1 Bft) 100,00 %
03.07.2018 09:36 20,7 C 22,2 C 19,4 C 55 % 1014,9 hPa 0,0 l/m 2 min 0 min 528 W/m 11,3 km/h (2 Bft) 100,00 %
03.07.2018 09:38 20,8 C 22,2 C 19,4 C 55 % 1014,8 hPa 0,0 l/m 2 min 0 min 533 W/m 6,8 km/h (2 Bft) 100,00 %
03.07.2018 09:40 20,8 C 22,2 C 19,4 C 55 % 1014,7 hPa 0,0 l/m 2 min 0 min 539 W/m 6,8 km/h (2 Bft) 100,00 %
03.07.2018 09:42 20,9 C 22,2 C 20,0 C 56 % 1014,7 hPa 0,0 l/m 2 min 0 min 547 W/m 4,5 km/h (1 Bft) 100,00 %
03.07.2018 09:44 21,0 C 22,2 C 20,0 C 55 % 1014,7 hPa 0,0 l/m 2 min 0 min 555 W/m 11,3 km/h (2 Bft) 100,00 %
03.07.2018 09:46 21,1 C 22,8 C 20,0 C 56 % 1014,7 hPa 0,0 l/m 2 min 0 min 567 W/m 4,5 km/h (1 Bft) 100,00 %
03.07.2018 09:48 21,2 C 22,8 C 20,0 C 54 % 1014,7 hPa 0,0 l/m 2 min 0 min 530 W/m 9,0 km/h (2 Bft) 100,00 %
03.07.2018 09:50 21,3 C 22,8 C 20,0 C 55 % 1014,7 hPa 0,0 l/m 2 min 0 min 453 W/m 4,5 km/h (1 Bft) 100,00 %
03.07.2018 09:52 21,3 C 22,8 C 20,0 C 55 % 1014,8 hPa 0,0 l/m 2 min 0 min 396 W/m 4,5 km/h (1 Bft) 97,87 %
03.07.2018 09:54 21,4 C 22,8 C 20,0 C 54 % 1014,7 hPa 0,0 l/m 2 min 0 min 403 W/m 6,8 km/h (2 Bft) 100,00 %
03.07.2018 09:56 21,4 C 22,8 C 20,0 C 55 % 1014,7 hPa 0,0 l/m 2 min 0 min 427 W/m 4,5 km/h (1 Bft) 97,87 %
03.07.2018 09:58 21,5 C 23,3 C 20,0 C 54 % 1014,7 hPa 0,0 l/m 2 min 0 min 540 W/m 4,5 km/h (1 Bft) 100,00 %
03.07.2018 10:00 21,6 C 25,0 C 20,0 C 55 % 1014,7 hPa 0,0 l/m 2 min 0 min 512 W/m 4,5 km/h (1 Bft) 100,00 %
03.07.2018 10:02 21,6 C 25,0 C 20,6 C 54 % 1014,6 hPa 0,0 l/m 2 min 0 min 524 W/m 4,5 km/h (1 Bft) 100,00 %
03.07.2018 10:04 21,7 C 25,0 C 20,6 C 54 % 1014,7 hPa 0,0 l/m 2 min 0 min 544 W/m 4,5 km/h (1 Bft) 97,87 %
03.07.2018 10:06 21,7 C 24,4 C 20,6 C 54 % 1014,7 hPa 0,0 l/m 2 min 0 min 534 W/m 4,5 km/h (1 Bft) 97,83 %
03.07.2018 10:08 21,8 C 23,9 C 20,6 C 54 % 1014,7 hPa 0,0 l/m 2 min 0 min 454 W/m 4,5 km/h (1 Bft) 95,74 %
03.07.2018 10:10 21,8 C 23,9 C 20,6 C 52 % 1014,6 hPa 0,0 l/m 2 min 0 min 411 W/m 4,5 km/h (1 Bft) 97,87 %
03.07.2018 10:12 21,9 C 23,3 C 20,6 C 52 % 1014,7 hPa 0,0 l/m 2 min 0 min 433 W/m 6,8 km/h (2 Bft) 97,87 %
03.07.2018 10:14 21,9 C 23,9 C 20,6 C 50 % 1014,6 hPa 0,0 l/m 2 min 0 min 398 W/m 9,0 km/h (2 Bft) 97,87 %
03.07.2018 10:16 22,0 C 23,3 C 20,6 C 50 % 1014,6 hPa 0,0 l/m 2 min 0 min 350 W/m 6,8 km/h (2 Bft) 100,00 %
03.07.2018 10:18 22,1 C 23,3 C 20,6 C 50 % 1014,6 hPa 0,0 l/m 2 min 0 min 383 W/m 6,8 km/h (2 Bft) 97,83 %
03.07.2018 10:20 22,1 C 23,3 C 20,0 C 48 % 1014,6 hPa 0,0 l/m 2 min 0 min 399 W/m 6,8 km/h (2 Bft) 95,74 %
03.07.2018 10:22 22,2 C 23,3 C 20,6 C 49 % 1014,6 hPa 0,0 l/m 2 min 0 min 434 W/m 9,0 km/h (2 Bft) 95,74 %
03.07.2018 10:24 22,2 C 23,3 C 20,6 C 47 % 1014,6 hPa 0,0 l/m 2 min 0 min 398 W/m 11,3 km/h (2 Bft) 97,87 %
03.07.2018 10:26 22,3 C 23,9 C 20,6 C 47 % 1014,6 hPa 0,0 l/m 2 min 0 min 432 W/m 11,3 km/h (2 Bft) 97,87 %
03.07.2018 10:28 22,3 C 23,9 C 20,6 C 46 % 1014,7 hPa 0,0 l/m 2 min 0 min 467 W/m 9,0 km/h (2 Bft) 97,87 %
03.07.2018 10:30 22,4 C 23,9 C 20,6 C 46 % 1014,6 hPa 0,0 l/m 2 min 0 min 429 W/m 6,8 km/h (2 Bft) 97,83 %
03.07.2018 10:32 22,5 C 23,9 C 20,6 C 48 % 1014,7 hPa 0,0 l/m 2 min 0 min 417 W/m 4,5 km/h (1 Bft) 97,87 %
03.07.2018 10:34 22,6 C 23,9 C 20,6 C 48 % 1014,6 hPa 0,0 l/m 2 min 0 min 440 W/m 6,8 km/h (2 Bft) 97,87 %
03.07.2018 10:36 22,6 C 23,9 C 20,6 C 47 % 1014,6 hPa 0,0 l/m 2 min 0 min 452 W/m 9,0 km/h (2 Bft) 95,74 %
03.07.2018 10:38 22,7 C 24,4 C 20,6 C 45 % 1014,6 hPa 0,0 l/m 2 min 0 min 460 W/m 6,8 km/h (2 Bft) 95,74 %
03.07.2018 10:40 22,7 C 25,0 C 20,6 C 45 % 1014,7 hPa 0,0 l/m 2 min 0 min 443 W/m 9,0 km/h (2 Bft) 92,31 %
03.07.2018 10:42 22,8 C 24,4 C 20,6 C 45 % 1014,6 hPa 0,0 l/m 2 min 0 min 456 W/m 9,0 km/h (2 Bft) 97,73 %
03.07.2018 10:44 22,9 C 25,0 C 20,6 C 46 % 1014,6 hPa 0,0 l/m 2 min 0 min 432 W/m 6,8 km/h (2 Bft) 95,74 %
03.07.2018 10:46 22,9 C 25,0 C 20,6 C 47 % 1014,6 hPa 0,0 l/m 2 min 0 min 372 W/m 4,5 km/h (1 Bft) 93,62 %
03.07.2018 10:48 22,9 C 25,0 C 20,6 C 48 % 1014,6 hPa 0,0 l/m 2 min 0 min 380 W/m 2,3 km/h (1 Bft) 95,74 %
03.07.2018 10:50 23,0 C 25,0 C 20,6 C 45 % 1014,6 hPa 0,0 l/m 2 min 0 min 364 W/m 11,3 km/h (2 Bft) 93,62 %
03.07.2018 10:52 23,1 C 25,6 C 20,6 C 45 % 1014,6 hPa 0,0 l/m 2 min 0 min 417 W/m 9,0 km/h (2 Bft) 93,48 %
03.07.2018 10:54 23,2 C 26,1 C 21,1 C 43 % 1014,7 hPa 0,0 l/m 2 min 0 min 435 W/m 9,0 km/h (2 Bft) 95,74 %
03.07.2018 10:56 23,2 C 26,7 C 21,1 C 43 % 1014,6 hPa 0,0 l/m 2 min 0 min 450 W/m 9,0 km/h (2 Bft) 93,62 %
03.07.2018 10:58 23,3 C 27,8 C 21,1 C 44 % 1014,6 hPa 0,0 l/m 2 min 0 min 530 W/m 9,0 km/h (2 Bft) 95,74 %
03.07.2018 11:00 23,4 C 28,9 C 21,1 C 44 % 1014,6 hPa 0,0 l/m 2 min 0 min 532 W/m 6,8 km/h (2 Bft) 93,62 %
03.07.2018 11:02 23,5 C 30,0 C 21,1 C 46 % 1014,6 hPa 0,0 l/m 2 min 0 min 526 W/m 4,5 km/h (1 Bft) 95,74 %
03.07.2018 11:04 23,6 C 30,0 C 21,1 C 43 % 1014,7 hPa 0,0 l/m 2 min 0 min 596 W/m 11,3 km/h (2 Bft) 97,83 %
03.07.2018 11:06 23,7 C 31,1 C 21,1 C 45 % 1014,6 hPa 0,0 l/m 2 min 0 min 634 W/m 6,8 km/h (2 Bft) 95,74 %
03.07.2018 11:08 23,8 C 31,7 C 21,1 C 45 % 1014,6 hPa 0,0 l/m 2 min 0 min 651 W/m 6,8 km/h (2 Bft) 93,62 %
03.07.2018 11:10 23,9 C 31,1 C 21,1 C 44 % 1014,7 hPa 0,0 l/m 2 min 0 min 634 W/m 9,0 km/h (2 Bft) 95,74 %
03.07.2018 11:12 24,1 C 31,7 C 21,1 C 43 % 1014,7 hPa 0,0 l/m 2 min 0 min 632 W/m 9,0 km/h (2 Bft) 95,74 %
03.07.2018 11:14 24,2 C 31,7 C 21,1 C 43 % 1014,7 hPa 0,0 l/m 2 min 0 min 553 W/m 9,0 km/h (2 Bft) 95,74 %
03.07.2018 11:16 24,4 C 31,7 C 21,7 C 43 % 1014,7 hPa 0,0 l/m 2 min 0 min 565 W/m 11,3 km/h (2 Bft) 91,30 %
03.07.2018 11:18 24,6 C 32,2 C 21,7 C 42 % 1014,7 hPa 0,0 l/m 2 min 0 min 569 W/m 9,0 km/h (2 Bft) 95,74 %
03.07.2018 11:20 24,7 C 33,9 C 21,7 C 44 % 1014,7 hPa 0,0 l/m 2 min 0 min 714 W/m 2,3 km/h (1 Bft) 97,87 %
03.07.2018 11:22 24,8 C 35,0 C 21,7 C 45 % 1014,7 hPa 0,0 l/m 2 min 0 min 725 W/m 4,5 km/h (1 Bft) 97,87 %
03.07.2018 11:24 25,1 C 35,0 C 21,7 C 42 % 1014,7 hPa 0,0 l/m 2 min 0 min 733 W/m 13,5 km/h (3 Bft) 97,87 %
03.07.2018 11:26 25,1 C 35,0 C 21,7 C 41 % 1014,7 hPa 0,0 l/m 2 min 0 min 772 W/m 11,3 km/h (2 Bft) 95,74 %
03.07.2018 11:28 25,3 C 34,4 C 22,2 C 42 % 1014,6 hPa 0,0 l/m 2 min 0 min 779 W/m 11,3 km/h (2 Bft) 95,65 %
03.07.2018 11:30 25,6 C 33,9 C 22,8 C 40 % 1014,6 hPa 0,0 l/m 2 min 0 min 783 W/m 9,0 km/h (2 Bft) 95,74 %
03.07.2018 11:32 25,8 C 35,0 C 22,8 C 41 % 1014,6 hPa 0,0 l/m 2 min 0 min 786 W/m 6,8 km/h (2 Bft) 97,96 %
03.07.2018 11:34 26,0 C 35,0 C 22,8 C 40 % 1014,6 hPa 0,0 l/m 2 min 0 min 789 W/m 11,3 km/h (2 Bft) 95,74 %
03.07.2018 11:36 26,2 C 34,4 C 22,8 C 39 % 1014,6 hPa 0,0 l/m 2 min 0 min 791 W/m 9,0 km/h (2 Bft) 97,87 %
03.07.2018 11:38 26,4 C 35,6 C 22,8 C 40 % 1014,6 hPa 0,0 l/m 2 min 0 min 794 W/m 9,0 km/h (2 Bft) 97,83 %
03.07.2018 11:40 26,6 C 34,4 C 22,8 C 40 % 1014,6 hPa 0,0 l/m 2 min 0 min 796 W/m 11,3 km/h (2 Bft) 97,87 %
03.07.2018 11:42 26,8 C 33,9 C 22,8 C 39 % 1014,6 hPa 0,0 l/m 2 min 0 min 800 W/m 6,8 km/h (2 Bft) 97,87 %
03.07.2018 11:44 27,0 C 35,0 C 23,3 C 39 % 1014,5 hPa 0,0 l/m 2 min 0 min 803 W/m 18,0 km/h (3 Bft) 97,87 %
03.07.2018 11:46 27,2 C 33,9 C 23,3 C 38 % 1014,5 hPa 0,0 l/m 2 min 0 min 806 W/m 11,3 km/h (2 Bft) 97,87 %
03.07.2018 11:48 27,4 C 35,6 C 23,3 C 41 % 1014,5 hPa 0,0 l/m 2 min 0 min 809 W/m 6,8 km/h (2 Bft) 97,87 %
03.07.2018 11:50 27,5 C 36,1 C 23,3 C 38 % 1014,5 hPa 0,0 l/m 2 min 0 min 810 W/m 6,8 km/h (2 Bft) 97,83 %
03.07.2018 11:52 27,7 C 37,2 C 23,3 C 40 % 1014,5 hPa 0,0 l/m 2 min 0 min 815 W/m 4,5 km/h (1 Bft) 97,87 %
03.07.2018 11:54 27,8 C 37,8 C 23,3 C 40 % 1014,5 hPa 0,0 l/m 2 min 0 min 816 W/m 9,0 km/h (2 Bft) 97,87 %
03.07.2018 11:56 28,0 C 37,8 C 23,9 C 40 % 1014,5 hPa 0,0 l/m 2 min 0 min 819 W/m 6,8 km/h (2 Bft) 97,87 %
03.07.2018 11:58 28,1 C 36,7 C 23,9 C 37 % 1014,4 hPa 0,0 l/m 2 min 0 min 821 W/m 9,0 km/h (2 Bft) 97,87 %
03.07.2018 12:00 28,3 C 37,8 C 23,9 C 40 % 1014,4 hPa 0,0 l/m 2 min 0 min 827 W/m 9,0 km/h (2 Bft) 97,87 %
03.07.2018 12:02 28,4 C 38,3 C 23,9 C 39 % 1014,4 hPa 0,0 l/m 2 min 0 min 831 W/m 4,5 km/h (1 Bft) 97,83 %
03.07.2018 12:04 28,6 C 35,0 C 24,4 C 35 % 1014,4 hPa 0,0 l/m 2 min 0 min 834 W/m 13,5 km/h (3 Bft) 100,00 %
03.07.2018 12:07 28,8 C 35,0 C 24,4 C 37 % 1014,4 hPa 0,0 l/m 3 min 0 min 837 W/m 11,3 km/h (2 Bft) 100,00 %
03.07.2018 12:08 28,8 C 35,6 C 25,0 C 38 % 1014,4 hPa 0,0 l/m 1 min 0 min 837 W/m 11,3 km/h (2 Bft) 100,00 %
03.07.2018 12:10 28,9 C 36,1 C 25,0 C 38 % 1014,4 hPa 0,0 l/m 2 min 0 min 840 W/m 9,0 km/h (2 Bft) 100,00 %
03.07.2018 12:12 29,0 C 36,1 C 24,4 C 37 % 1014,5 hPa 0,0 l/m 2 min 0 min 843 W/m 9,0 km/h (2 Bft) 100,00 %
03.07.2018 12:14 29,1 C 36,1 C 24,4 C 35 % 1014,5 hPa 0,0 l/m 2 min 0 min 846 W/m 9,0 km/h (2 Bft) 100,00 %
03.07.2018 12:16 29,2 C 36,1 C 24,4 C 35 % 1014,5 hPa 0,0 l/m 2 min 0 min 849 W/m 11,3 km/h (2 Bft) 100,00 %
03.07.2018 12:18 29,3 C 35,0 C 25,0 C 35 % 1014,5 hPa 0,0 l/m 2 min 0 min 850 W/m 11,3 km/h (2 Bft) 100,00 %
03.07.2018 12:20 29,3 C 35,6 C 25,0 C 35 % 1014,4 hPa 0,0 l/m 2 min 0 min 852 W/m 9,0 km/h (2 Bft) 100,00 %
03.07.2018 12:22 29,4 C 35,6 C 25,0 C 35 % 1014,5 hPa 0,0 l/m 2 min 0 min 854 W/m 15,8 km/h (3 Bft) 100,00 %
03.07.2018 12:24 29,4 C 35,0 C 25,0 C 34 % 1014,4 hPa 0,0 l/m 2 min 0 min 827 W/m 9,0 km/h (2 Bft) 100,00 %
03.07.2018 12:26 29,5 C 35,0 C 25,0 C 34 % 1014,4 hPa 0,0 l/m 2 min 0 min 859 W/m 11,3 km/h (2 Bft) 100,00 %
03.07.2018 12:28 29,6 C 35,6 C 25,0 C 34 % 1014,4 hPa 0,0 l/m 2 min 0 min 861 W/m 11,3 km/h (2 Bft) 100,00 %
03.07.2018 12:30 29,6 C 37,2 C 25,0 C 36 % 1014,4 hPa 0,0 l/m 2 min 0 min 865 W/m 6,8 km/h (2 Bft) 100,00 %
03.07.2018 12:32 29,7 C 36,1 C 25,0 C 36 % 1014,4 hPa 0,0 l/m 2 min 0 min 864 W/m 11,3 km/h (2 Bft) 100,00 %
03.07.2018 12:34 29,7 C 35,0 C 25,0 C 35 % 1014,4 hPa 0,0 l/m 2 min 0 min 867 W/m 9,0 km/h (2 Bft) 100,00 %
03.07.2018 12:36 29,7 C 36,1 C 25,0 C 35 % 1014,4 hPa 0,0 l/m 2 min 0 min 871 W/m 9,0 km/h (2 Bft) 100,00 %
03.07.2018 12:38 29,7 C 37,2 C 25,0 C 36 % 1014,3 hPa 0,0 l/m 2 min 0 min 873 W/m 6,8 km/h (2 Bft) 100,00 %
03.07.2018 12:40 29,8 C 38,3 C 25,0 C 37 % 1014,4 hPa 0,0 l/m 2 min 0 min 875 W/m 4,5 km/h (1 Bft) 100,00 %
03.07.2018 12:42 29,8 C 37,8 C 25,0 C 35 % 1014,4 hPa 0,0 l/m 2 min 0 min 880 W/m 6,8 km/h (2 Bft) 97,83 %
03.07.2018 12:44 29,8 C 38,3 C 25,0 C 36 % 1014,3 hPa 0,0 l/m 2 min 0 min 879 W/m 9,0 km/h (2 Bft) 100,00 %
03.07.2018 12:46 29,8 C 37,2 C 25,6 C 34 % 1014,4 hPa 0,0 l/m 2 min 0 min 882 W/m 9,0 km/h (2 Bft) 100,00 %
03.07.2018 12:48 29,9 C 36,1 C 25,6 C 34 % 1014,3 hPa 0,0 l/m 2 min 0 min 884 W/m 13,5 km/h (3 Bft) 100,00 %
03.07.2018 12:50 29,9 C 35,6 C 25,6 C 33 % 1014,3 hPa 0,0 l/m 2 min 0 min 885 W/m 13,5 km/h (3 Bft) 100,00 %
03.07.2018 12:52 29,9 C 36,1 C 25,6 C 34 % 1014,4 hPa 0,0 l/m 2 min 0 min 886 W/m 4,5 km/h (1 Bft) 100,00 %
03.07.2018 12:54 29,9 C 36,7 C 26,1 C 35 % 1014,2 hPa 0,0 l/m 2 min 0 min 889 W/m 4,5 km/h (1 Bft) 100,00 %
03.07.2018 12:56 30,0 C 38,3 C 25,6 C 37 % 1014,2 hPa 0,0 l/m 2 min 0 min 889 W/m 6,8 km/h (2 Bft) 100,00 %
03.07.2018 12:58 30,0 C 38,9 C 25,6 C 35 % 1014,2 hPa 0,0 l/m 2 min 0 min 892 W/m 6,8 km/h (2 Bft) 100,00 %
03.07.2018 13:00 30,0 C 38,9 C 25,6 C 35 % 1014,3 hPa 0,0 l/m 2 min 0 min 893 W/m 6,8 km/h (2 Bft) 100,00 %
03.07.2018 13:02 30,1 C 39,4 C 25,6 C 37 % 1014,2 hPa 0,0 l/m 2 min 0 min 896 W/m 6,8 km/h (2 Bft) 100,00 %
03.07.2018 13:04 30,1 C 39,4 C 26,1 C 36 % 1014,3 hPa 0,0 l/m 2 min 0 min 897 W/m 6,8 km/h (2 Bft) 100,00 %
03.07.2018 13:06 30,1 C 38,3 C 26,1 C 35 % 1014,3 hPa 0,0 l/m 2 min 0 min 900 W/m 6,8 km/h (2 Bft) 100,00 %
03.07.2018 13:08 30,1 C 38,9 C 26,1 C 35 % 1014,1 hPa 0,0 l/m 2 min 0 min 903 W/m 6,8 km/h (2 Bft) 100,00 %
03.07.2018 13:10 30,2 C 38,9 C 26,1 C 36 % 1014,1 hPa 0,0 l/m 2 min 0 min 904 W/m 4,5 km/h (1 Bft) 100,00 %
03.07.2018 13:12 30,2 C 39,4 C 26,1 C 36 % 1014,2 hPa 0,0 l/m 2 min 0 min 906 W/m 4,5 km/h (1 Bft) 100,00 %
03.07.2018 13:14 30,2 C 38,9 C 26,1 C 34 % 1014,2 hPa 0,0 l/m 2 min 0 min 906 W/m 4,5 km/h (1 Bft) 100,00 %
03.07.2018 13:16 30,2 C 37,8 C 26,1 C 34 % 1014,1 hPa 0,0 l/m 2 min 0 min 905 W/m 4,5 km/h (1 Bft) 100,00 %
03.07.2018 13:18 30,2 C 37,2 C 26,1 C 32 % 1014,1 hPa 0,0 l/m 2 min 0 min 906 W/m 4,5 km/h (1 Bft) 100,00 %
03.07.2018 13:20 30,2 C 37,8 C 26,1 C 36 % 1014,0 hPa 0,0 l/m 2 min 0 min 910 W/m 6,8 km/h (2 Bft) 100,00 %
03.07.2018 13:22 30,2 C 38,3 C 26,1 C 34 % 1014,0 hPa 0,0 l/m 2 min 0 min 912 W/m 6,8 km/h (2 Bft) 95,74 %
03.07.2018 13:24 30,2 C 38,9 C 26,1 C 35 % 1014,0 hPa 0,0 l/m 2 min 0 min 912 W/m 6,8 km/h (2 Bft) 97,87 %
03.07.2018 13:26 30,2 C 37,2 C 26,7 C 34 % 1014,0 hPa 0,0 l/m 2 min 0 min 910 W/m 11,3 km/h (2 Bft) 97,87 %
03.07.2018 13:28 30,2 C 35,6 C 26,7 C 33 % 1014,1 hPa 0,0 l/m 2 min 0 min 912 W/m 11,3 km/h (2 Bft) 98,15 %
03.07.2018 13:30 30,2 C 35,0 C 26,7 C 33 % 1014,0 hPa 0,0 l/m 2 min 0 min 913 W/m 9,0 km/h (2 Bft) 95,74 %
03.07.2018 13:32 30,2 C 35,0 C 26,7 C 34 % 1014,0 hPa 0,0 l/m 2 min 0 min 911 W/m 9,0 km/h (2 Bft) 96,00 %
03.07.2018 13:34 30,1 C 36,1 C 26,7 C 35 % 1014,0 hPa 0,0 l/m 2 min 0 min 914 W/m 9,0 km/h (2 Bft) 97,22 %
03.07.2018 13:36 30,1 C 35,0 C 26,7 C 33 % 1014,0 hPa 0,0 l/m 2 min 0 min 916 W/m 9,0 km/h (2 Bft) 95,74 %
03.07.2018 13:38 30,1 C 35,6 C 26,7 C 35 % 1014,0 hPa 0,0 l/m 2 min 0 min 914 W/m 6,8 km/h (2 Bft) 95,74 %
03.07.2018 13:40 30,1 C 35,0 C 26,7 C 37 % 1014,0 hPa 0,0 l/m 2 min 0 min 916 W/m 6,8 km/h (2 Bft) 95,65 %
03.07.2018 13:42 30,1 C 33,3 C 27,2 C 36 % 1014,0 hPa 0,0 l/m 2 min 0 min 914 W/m 6,8 km/h (2 Bft) 93,62 %
03.07.2018 13:44 30,0 C 31,1 C 26,7 C 35 % 1014,0 hPa 0,0 l/m 2 min 0 min 913 W/m 6,8 km/h (2 Bft) 97,87 %
03.07.2018 13:46 30,0 C 30,0 C 26,7 C 34 % 1013,9 hPa 0,0 l/m 2 min 0 min 918 W/m 11,3 km/h (2 Bft) 91,49 %
03.07.2018 13:48 29,9 C 29,4 C 26,7 C 35 % 1014,0 hPa 0,0 l/m 2 min 0 min 920 W/m 9,0 km/h (2 Bft) 95,74 %
03.07.2018 13:50 29,8 C 29,4 C 26,7 C 35 % 1014,0 hPa 0,0 l/m 2 min 0 min 919 W/m 6,8 km/h (2 Bft) 90,91 %
03.07.2018 13:52 29,8 C 28,9 C 26,7 C 35 % 1013,9 hPa 0,0 l/m 2 min 0 min 918 W/m 6,8 km/h (2 Bft) 93,48 %
03.07.2018 13:54 29,8 C 28,9 C 26,7 C 34 % 1013,9 hPa 0,0 l/m 2 min 0 min 918 W/m 9,0 km/h (2 Bft) 91,49 %
03.07.2018 13:56 29,7 C 28,9 C 27,2 C 36 % 1013,9 hPa 0,0 l/m 2 min 0 min 919 W/m 6,8 km/h (2 Bft) 91,49 %
03.07.2018 13:58 29,7 C 29,4 C 27,2 C 36 % 1013,9 hPa 0,0 l/m 2 min 0 min 919 W/m 6,8 km/h (2 Bft) 93,62 %
03.07.2018 14:00 29,7 C 28,9 C 26,7 C 35 % 1013,9 hPa 0,0 l/m 2 min 0 min 922 W/m 9,0 km/h (2 Bft) 93,62 %
03.07.2018 14:02 29,6 C 28,9 C 26,7 C 36 % 1013,9 hPa 0,0 l/m 2 min 0 min 920 W/m 4,5 km/h (1 Bft) 89,80 %
03.07.2018 14:04 29,5 C 28,9 C 26,7 C 34 % 1013,8 hPa 0,0 l/m 2 min 0 min 920 W/m 6,8 km/h (2 Bft) 95,74 %
03.07.2018 14:06 29,4 C 28,9 C 26,1 C 37 % 1013,7 hPa 0,0 l/m 2 min 0 min 916 W/m 4,5 km/h (1 Bft) 91,67 %
03.07.2018 14:08 29,4 C 28,9 C 26,7 C 35 % 1013,8 hPa 0,0 l/m 2 min 0 min 918 W/m 4,5 km/h (1 Bft) 93,62 %
03.07.2018 14:10 29,4 C 28,9 C 26,7 C 38 % 1013,8 hPa 0,0 l/m 2 min 0 min 919 W/m 6,8 km/h (2 Bft) 95,74 %
03.07.2018 14:12 29,4 C 28,9 C 26,7 C 37 % 1013,8 hPa 0,0 l/m 2 min 0 min 919 W/m 9,0 km/h (2 Bft) 94,55 %
03.07.2018 14:14 29,3 C 28,9 C 26,7 C 34 % 1013,7 hPa 0,0 l/m 2 min 0 min 918 W/m 11,3 km/h (2 Bft) 93,88 %
03.07.2018 14:16 29,3 C 28,9 C 26,7 C 35 % 1013,7 hPa 0,0 l/m 2 min 0 min 919 W/m 9,0 km/h (2 Bft) 93,62 %
03.07.2018 14:18 29,3 C 29,4 C 26,7 C 37 % 1013,7 hPa 0,0 l/m 2 min 0 min 918 W/m 9,0 km/h (2 Bft) 95,74 %
03.07.2018 14:20 29,3 C 29,4 C 27,2 C 36 % 1013,6 hPa 0,0 l/m 2 min 0 min 916 W/m 6,8 km/h (2 Bft) 97,22 %
03.07.2018 14:22 29,3 C 29,4 C 26,7 C 37 % 1013,7 hPa 0,0 l/m 2 min 0 min 917 W/m 6,8 km/h (2 Bft) 91,49 %
03.07.2018 14:24 29,3 C 28,9 C 26,7 C 36 % 1013,6 hPa 0,0 l/m 2 min 0 min 917 W/m 6,8 km/h (2 Bft) 95,74 %
03.07.2018 14:26 29,3 C 28,9 C 26,7 C 36 % 1013,6 hPa 0,0 l/m 2 min 0 min 918 W/m 6,8 km/h (2 Bft) 95,65 %
03.07.2018 14:28 29,3 C 28,9 C 26,7 C 36 % 1013,6 hPa 0,0 l/m 2 min 0 min 917 W/m 6,8 km/h (2 Bft) 97,87 %
03.07.2018 14:30 29,3 C 28,9 C 26,7 C 38 % 1013,6 hPa 0,0 l/m 2 min 0 min 914 W/m 9,0 km/h (2 Bft) 95,74 %
03.07.2018 14:32 29,3 C 28,9 C 26,7 C 35 % 1013,6 hPa 0,0 l/m 2 min 0 min 912 W/m 9,0 km/h (2 Bft) 95,74 %
03.07.2018 14:34 29,3 C 29,4 C 27,2 C 35 % 1013,6 hPa 0,0 l/m 2 min 0 min 909 W/m 6,8 km/h (2 Bft) 97,87 %
03.07.2018 14:36 29,3 C 29,4 C 27,2 C 37 % 1013,6 hPa 0,0 l/m 2 min 0 min 906 W/m 9,0 km/h (2 Bft) 97,87 %
03.07.2018 14:38 29,3 C 29,4 C 27,2 C 37 % 1013,6 hPa 0,0 l/m 2 min 0 min 902 W/m 6,8 km/h (2 Bft) 98,08 %
03.07.2018 14:40 29,3 C 29,4 C 27,2 C 36 % 1013,6 hPa 0,0 l/m 2 min 0 min 907 W/m 6,8 km/h (2 Bft) 95,74 %
03.07.2018 14:42 29,3 C 29,4 C 26,7 C 35 % 1013,6 hPa 0,0 l/m 2 min 0 min 909 W/m 13,5 km/h (3 Bft) 95,74 %
03.07.2018 14:44 29,3 C 29,4 C 26,7 C 35 % 1013,6 hPa 0,0 l/m 2 min 0 min 908 W/m 6,8 km/h (2 Bft) 95,74 %
03.07.2018 14:46 29,3 C 29,4 C 26,7 C 36 % 1013,6 hPa 0,0 l/m 2 min 0 min 906 W/m 9,0 km/h (2 Bft) 97,87 %
03.07.2018 14:48 29,3 C 28,9 C 26,7 C 35 % 1013,6 hPa 0,0 l/m 2 min 0 min 903 W/m 6,8 km/h (2 Bft) 95,74 %
03.07.2018 14:50 29,3 C 28,9 C 26,7 C 35 % 1013,6 hPa 0,0 l/m 2 min 0 min 905 W/m 6,8 km/h (2 Bft) 97,83 %
03.07.2018 14:52 29,3 C 28,9 C 26,7 C 37 % 1013,5 hPa 0,0 l/m 2 min 0 min 901 W/m 6,8 km/h (2 Bft) 95,74 %
03.07.2018 14:54 29,3 C 29,4 C 26,7 C 37 % 1013,5 hPa 0,0 l/m 2 min 0 min 902 W/m 9,0 km/h (2 Bft) 97,87 %
03.07.2018 14:56 29,3 C 29,4 C 26,7 C 35 % 1013,5 hPa 0,0 l/m 2 min 0 min 901 W/m 6,8 km/h (2 Bft) 100,00 %
03.07.2018 14:58 29,3 C 29,4 C 26,7 C 37 % 1013,5 hPa 0,0 l/m 2 min 0 min 901 W/m 6,8 km/h (2 Bft) 100,00 %
03.07.2018 15:00 29,4 C 29,4 C 26,7 C 36 % 1013,5 hPa 0,0 l/m 2 min 0 min 900 W/m 4,5 km/h (1 Bft) 100,00 %
03.07.2018 15:02 29,4 C 29,4 C 27,2 C 35 % 1013,5 hPa 0,0 l/m 2 min 0 min 898 W/m 6,8 km/h (2 Bft) 98,00 %
03.07.2018 15:04 29,4 C 29,4 C 27,2 C 36 % 1013,5 hPa 0,0 l/m 2 min 0 min 894 W/m 11,3 km/h (2 Bft) 100,00 %
03.07.2018 15:06 29,4 C 29,4 C 27,2 C 37 % 1013,4 hPa 0,0 l/m 2 min 0 min 890 W/m 9,0 km/h (2 Bft) 100,00 %
03.07.2018 15:08 29,5 C 29,4 C 27,2 C 34 % 1013,5 hPa 0,0 l/m 2 min 0 min 889 W/m 9,0 km/h (2 Bft) 100,00 %
03.07.2018 15:10 29,5 C 29,4 C 27,2 C 34 % 1013,5 hPa 0,0 l/m 2 min 0 min 889 W/m 6,8 km/h (2 Bft) 100,00 %
03.07.2018 15:12 29,5 C 28,9 C 27,2 C 34 % 1013,5 hPa 0,0 l/m 2 min 0 min 888 W/m 6,8 km/h (2 Bft) 100,00 %
03.07.2018 15:14 29,6 C 29,4 C 27,2 C 36 % 1013,5 hPa 0,0 l/m 2 min 0 min 888 W/m 6,8 km/h (2 Bft) 100,00 %
03.07.2018 15:16 29,6 C 29,4 C 27,2 C 34 % 1013,5 hPa 0,0 l/m 2 min 0 min 883 W/m 9,0 km/h (2 Bft) 100,00 %
03.07.2018 15:18 29,6 C 29,4 C 27,2 C 36 % 1013,4 hPa 0,0 l/m 2 min 0 min 882 W/m 6,8 km/h (2 Bft) 100,00 %
03.07.2018 15:20 29,6 C 29,4 C 27,2 C 35 % 1013,4 hPa 0,0 l/m 2 min 0 min 879 W/m 4,5 km/h (1 Bft) 100,00 %
03.07.2018 15:22 29,6 C 30,0 C 27,2 C 34 % 1013,4 hPa 0,0 l/m 2 min 0 min 876 W/m 6,8 km/h (2 Bft) 100,00 %
03.07.2018 15:24 29,7 C 30,0 C 27,2 C 36 % 1013,4 hPa 0,0 l/m 2 min 0 min 876 W/m 4,5 km/h (1 Bft) 100,00 %
03.07.2018 15:26 29,7 C 30,6 C 27,2 C 36 % 1013,4 hPa 0,0 l/m 2 min 0 min 877 W/m 4,5 km/h (1 Bft) 100,00 %
03.07.2018 15:28 29,8 C 30,6 C 27,2 C 37 % 1013,4 hPa 0,0 l/m 2 min 0 min 875 W/m 4,5 km/h (1 Bft) 100,00 %
03.07.2018 15:30 29,8 C 30,6 C 27,2 C 37 % 1013,4 hPa 0,0 l/m 2 min 0 min 873 W/m 4,5 km/h (1 Bft) 100,00 %
03.07.2018 15:32 29,8 C 30,0 C 27,2 C 34 % 1013,4 hPa 0,0 l/m 2 min 0 min 871 W/m 6,8 km/h (2 Bft) 100,00 %
03.07.2018 15:34 29,9 C 30,0 C 27,2 C 34 % 1013,4 hPa 0,0 l/m 2 min 0 min 868 W/m 6,8 km/h (2 Bft) 100,00 %
03.07.2018 15:36 29,9 C 30,0 C 27,8 C 33 % 1013,3 hPa 0,0 l/m 2 min 0 min 865 W/m 6,8 km/h (2 Bft) 100,00 %
03.07.2018 15:38 29,9 C 30,0 C 27,8 C 34 % 1013,4 hPa 0,0 l/m 2 min 0 min 863 W/m 4,5 km/h (1 Bft) 100,00 %
03.07.2018 15:40 29,9 C 30,0 C 27,2 C 32 % 1013,4 hPa 0,0 l/m 2 min 0 min 861 W/m 4,5 km/h (1 Bft) 100,00 %
03.07.2018 15:42 30,0 C 30,6 C 27,8 C 35 % 1013,3 hPa 0,0 l/m 2 min 0 min 859 W/m 4,5 km/h (1 Bft) 100,00 %
03.07.2018 15:44 30,1 C 31,1 C 27,8 C 36 % 1013,3 hPa 0,0 l/m 2 min 0 min 856 W/m 11,3 km/h (2 Bft) 100,00 %
03.07.2018 15:46 30,1 C 31,1 C 27,2 C 33 % 1013,2 hPa 0,0 l/m 2 min 0 min 854 W/m 4,5 km/h (1 Bft) 97,87 %
03.07.2018 15:48 30,1 C 32,8 C 27,8 C 34 % 1013,3 hPa 0,0 l/m 2 min 0 min 849 W/m 11,3 km/h (2 Bft) 97,83 %
03.07.2018 15:50 30,2 C 33,9 C 27,8 C 33 % 1013,3 hPa 0,0 l/m 2 min 0 min 846 W/m 6,8 km/h (2 Bft) 97,87 %
03.07.2018 15:52 30,2 C 35,0 C 27,2 C 34 % 1013,2 hPa 0,0 l/m 2 min 0 min 844 W/m 9,0 km/h (2 Bft) 98,18 %
03.07.2018 15:54 30,3 C 36,1 C 27,2 C 35 % 1013,3 hPa 0,0 l/m 2 min 0 min 843 W/m 4,5 km/h (1 Bft) 95,74 %
03.07.2018 15:56 30,3 C 35,0 C 27,8 C 32 % 1013,3 hPa 0,0 l/m 2 min 0 min 840 W/m 4,5 km/h (1 Bft) 97,87 %
03.07.2018 15:58 30,3 C 34,4 C 27,2 C 32 % 1013,2 hPa 0,0 l/m 2 min 0 min 835 W/m 4,5 km/h (1 Bft) 97,87 %
03.07.2018 16:00 30,3 C 35,0 C 27,8 C 34 % 1013,2 hPa 0,0 l/m 2 min 0 min 833 W/m 4,5 km/h (1 Bft) 97,83 %
03.07.2018 16:02 30,4 C 35,0 C 27,8 C 33 % 1013,1 hPa 0,0 l/m 2 min 0 min 831 W/m 4,5 km/h (1 Bft) 94,00 %
03.07.2018 16:04 30,4 C 35,6 C 27,8 C 33 % 1013,1 hPa 0,0 l/m 2 min 0 min 827 W/m 11,3 km/h (2 Bft) 97,87 %
03.07.2018 16:06 30,4 C 36,1 C 27,8 C 34 % 1013,1 hPa 0,0 l/m 2 min 0 min 821 W/m 6,8 km/h (2 Bft) 97,22 %
03.07.2018 16:08 30,4 C 35,0 C 27,8 C 32 % 1013,2 hPa 0,0 l/m 2 min 0 min 820 W/m 6,8 km/h (2 Bft) 97,87 %
03.07.2018 16:10 30,5 C 35,6 C 27,8 C 35 % 1013,1 hPa 0,0 l/m 2 min 0 min 816 W/m 4,5 km/h (1 Bft) 97,87 %
03.07.2018 16:12 30,5 C 34,4 C 27,2 C 31 % 1013,1 hPa 0,0 l/m 2 min 0 min 811 W/m 4,5 km/h (1 Bft) 95,65 %
03.07.2018 16:14 30,6 C 33,9 C 27,8 C 32 % 1013,1 hPa 0,0 l/m 2 min 0 min 808 W/m 9,0 km/h (2 Bft) 97,87 %
03.07.2018 16:16 30,6 C 34,4 C 27,2 C 34 % 1013,0 hPa 0,0 l/m 2 min 0 min 800 W/m 4,5 km/h (1 Bft) 96,36 %
03.07.2018 16:18 30,6 C 35,6 C 27,2 C 35 % 1013,0 hPa 0,0 l/m 2 min 0 min 797 W/m 2,3 km/h (1 Bft) 98,00 %
03.07.2018 16:20 30,7 C 36,1 C 27,2 C 34 % 1013,0 hPa 0,0 l/m 2 min 0 min 794 W/m 6,8 km/h (2 Bft) 97,87 %
03.07.2018 16:22 30,7 C 36,1 C 27,8 C 35 % 1012,9 hPa 0,0 l/m 2 min 0 min 792 W/m 6,8 km/h (2 Bft) 97,83 %
03.07.2018 16:24 30,7 C 35,6 C 27,8 C 33 % 1012,9 hPa 0,0 l/m 2 min 0 min 791 W/m 13,5 km/h (3 Bft) 97,87 %
03.07.2018 16:26 30,8 C 35,0 C 27,8 C 33 % 1012,9 hPa 0,0 l/m 2 min 0 min 787 W/m 13,5 km/h (3 Bft) 97,37 %
03.07.2018 16:28 30,8 C 34,4 C 27,8 C 32 % 1013,0 hPa 0,0 l/m 2 min 0 min 784 W/m 6,8 km/h (2 Bft) 97,92 %
03.07.2018 16:30 30,8 C 33,9 C 27,8 C 33 % 1013,0 hPa 0,0 l/m 2 min 0 min 779 W/m 4,5 km/h (1 Bft) 97,87 %
03.07.2018 16:32 30,9 C 35,0 C 27,8 C 34 % 1012,9 hPa 0,0 l/m 2 min 0 min 772 W/m 4,5 km/h (1 Bft) 95,74 %
03.07.2018 16:34 30,9 C 35,0 C 27,8 C 34 % 1013,0 hPa 0,0 l/m 2 min 0 min 770 W/m 6,8 km/h (2 Bft) 97,83 %
03.07.2018 16:36 30,9 C 35,0 C 27,8 C 35 % 1012,9 hPa 0,0 l/m 2 min 0 min 769 W/m 9,0 km/h (2 Bft) 98,21 %
03.07.2018 16:38 30,9 C 34,4 C 27,8 C 32 % 1012,9 hPa 0,0 l/m 2 min 0 min 764 W/m 6,8 km/h (2 Bft) 97,14 %
03.07.2018 16:40 30,9 C 33,9 C 27,8 C 33 % 1013,0 hPa 0,0 l/m 2 min 0 min 759 W/m 6,8 km/h (2 Bft) 97,92 %
03.07.2018 16:42 30,9 C 33,9 C 27,8 C 33 % 1013,0 hPa 0,0 l/m 2 min 0 min 756 W/m 18,0 km/h (3 Bft) 97,87 %
03.07.2018 16:44 30,9 C 33,9 C 27,8 C 32 % 1013,0 hPa 0,0 l/m 2 min 0 min 752 W/m 6,8 km/h (2 Bft) 97,87 %
03.07.2018 16:46 30,9 C 33,9 C 27,8 C 32 % 1013,0 hPa 0,0 l/m 2 min 0 min 748 W/m 6,8 km/h (2 Bft) 97,92 %
03.07.2018 16:48 30,9 C 33,3 C 27,8 C 32 % 1012,9 hPa 0,0 l/m 2 min 0 min 740 W/m 6,8 km/h (2 Bft) 95,74 %
03.07.2018 16:50 30,8 C 33,3 C 27,8 C 33 % 1013,0 hPa 0,0 l/m 2 min 0 min 735 W/m 6,8 km/h (2 Bft) 95,74 %
03.07.2018 16:52 30,8 C 33,9 C 27,8 C 33 % 1012,9 hPa 0,0 l/m 2 min 0 min 735 W/m 4,5 km/h (1 Bft) 94,55 %
03.07.2018 16:54 30,8 C 33,9 C 27,8 C 33 % 1012,8 hPa 0,0 l/m 2 min 0 min 730 W/m 11,3 km/h (2 Bft) 97,87 %
03.07.2018 16:56 30,8 C 33,3 C 27,8 C 32 % 1012,8 hPa 0,0 l/m 2 min 0 min 724 W/m 9,0 km/h (2 Bft) 97,37 %
03.07.2018 16:58 30,8 C 33,9 C 27,8 C 34 % 1012,8 hPa 0,0 l/m 2 min 0 min 724 W/m 4,5 km/h (1 Bft) 95,74 %
03.07.2018 17:00 30,8 C 33,9 C 27,8 C 34 % 1012,8 hPa 0,0 l/m 2 min 0 min 723 W/m 4,5 km/h (1 Bft) 97,83 %
03.07.2018 17:02 30,9 C 33,9 C 28,3 C 35 % 1012,7 hPa 0,0 l/m 2 min 0 min 719 W/m 9,0 km/h (2 Bft) 97,87 %
03.07.2018 17:04 30,9 C 33,9 C 28,3 C 34 % 1012,7 hPa 0,0 l/m 2 min 0 min 715 W/m 9,0 km/h (2 Bft) 97,92 %
03.07.2018 17:06 30,9 C 33,9 C 28,3 C 35 % 1012,7 hPa 0,0 l/m 2 min 0 min 712 W/m 11,3 km/h (2 Bft) 97,87 %
03.07.2018 17:08 31,0 C 33,9 C 28,3 C 34 % 1012,8 hPa 0,0 l/m 2 min 0 min 708 W/m 4,5 km/h (1 Bft) 98,11 %
03.07.2018 17:10 31,1 C 33,9 C 28,3 C 34 % 1012,7 hPa 0,0 l/m 2 min 0 min 691 W/m 4,5 km/h (1 Bft) 97,83 %
03.07.2018 17:12 31,1 C 33,9 C 28,3 C 35 % 1012,7 hPa 0,0 l/m 2 min 0 min 685 W/m 4,5 km/h (1 Bft) 95,74 %
03.07.2018 17:14 31,1 C 33,9 C 27,8 C 35 % 1012,7 hPa 0,0 l/m 2 min 0 min 688 W/m 2,3 km/h (1 Bft) 97,87 %
03.07.2018 17:16 31,1 C 33,9 C 27,8 C 35 % 1012,7 hPa 0,0 l/m 2 min 0 min 688 W/m 6,8 km/h (2 Bft) 95,74 %
03.07.2018 17:18 31,1 C 33,3 C 28,3 C 32 % 1012,6 hPa 0,0 l/m 2 min 0 min 685 W/m 9,0 km/h (2 Bft) 98,00 %
03.07.2018 17:20 31,2 C 33,3 C 28,3 C 33 % 1012,7 hPa 0,0 l/m 2 min 0 min 679 W/m 6,8 km/h (2 Bft) 97,83 %
03.07.2018 17:22 31,2 C 32,8 C 28,3 C 32 % 1012,7 hPa 0,0 l/m 2 min 0 min 673 W/m 6,8 km/h (2 Bft) 97,87 %
03.07.2018 17:24 31,1 C 32,8 C 28,3 C 32 % 1012,7 hPa 0,0 l/m 2 min 0 min 663 W/m 13,5 km/h (3 Bft) 94,29 %
03.07.2018 17:26 31,1 C 32,8 C 28,3 C 33 % 1012,6 hPa 0,0 l/m 2 min 0 min 650 W/m 11,3 km/h (2 Bft) 100,00 %
03.07.2018 17:28 31,1 C 32,2 C 28,3 C 32 % 1012,5 hPa 0,0 l/m 2 min 0 min 646 W/m 9,0 km/h (2 Bft) 97,87 %
03.07.2018 17:30 31,1 C 32,2 C 28,3 C 33 % 1012,5 hPa 0,0 l/m 2 min 0 min 639 W/m 9,0 km/h (2 Bft) 97,87 %
03.07.2018 17:32 31,1 C 32,2 C 28,3 C 33 % 1012,6 hPa 0,0 l/m 2 min 0 min 638 W/m 9,0 km/h (2 Bft) 97,87 %
03.07.2018 17:34 31,1 C 32,2 C 28,3 C 33 % 1012,6 hPa 0,0 l/m 2 min 0 min 638 W/m 6,8 km/h (2 Bft) 95,83 %
03.07.2018 17:36 31,1 C 32,2 C 28,3 C 33 % 1012,5 hPa 0,0 l/m 2 min 0 min 633 W/m 6,8 km/h (2 Bft) 97,87 %
03.07.2018 17:38 31,2 C 32,2 C 28,3 C 32 % 1012,5 hPa 0,0 l/m 2 min 0 min 630 W/m 9,0 km/h (2 Bft) 96,30 %
03.07.2018 17:40 31,2 C 32,2 C 28,3 C 33 % 1012,5 hPa 0,0 l/m 2 min 0 min 628 W/m 9,0 km/h (2 Bft) 97,37 %
03.07.2018 17:42 31,2 C 32,2 C 27,8 C 33 % 1012,4 hPa 0,0 l/m 2 min 0 min 622 W/m 6,8 km/h (2 Bft) 95,74 %
03.07.2018 17:44 31,2 C 31,7 C 26,1 C 34 % 1012,4 hPa 0,0 l/m 2 min 0 min 616 W/m 6,8 km/h (2 Bft) 97,87 %
03.07.2018 17:46 31,2 C 30,6 C 26,1 C 33 % 1012,4 hPa 0,0 l/m 2 min 0 min 610 W/m 9,0 km/h (2 Bft) 97,92 %
03.07.2018 17:48 31,1 C 30,0 C 26,7 C 33 % 1012,3 hPa 0,0 l/m 2 min 0 min 603 W/m 6,8 km/h (2 Bft) 100,00 %
03.07.2018 17:50 31,1 C 30,0 C 27,2 C 33 % 1012,4 hPa 0,0 l/m 2 min 0 min 601 W/m 4,5 km/h (1 Bft) 100,00 %
03.07.2018 17:52 30,9 C 30,0 C 27,2 C 35 % 1012,3 hPa 0,0 l/m 2 min 0 min 596 W/m 4,5 km/h (1 Bft) 100,00 %
03.07.2018 17:54 30,9 C 30,6 C 27,2 C 35 % 1012,3 hPa 0,0 l/m 2 min 0 min 591 W/m 4,5 km/h (1 Bft) 100,00 %
03.07.2018 17:56 30,9 C 30,6 C 27,2 C 34 % 1012,3 hPa 0,0 l/m 2 min 0 min 588 W/m 4,5 km/h (1 Bft) 100,00 %
03.07.2018 17:58 30,8 C 30,6 C 27,2 C 34 % 1012,3 hPa 0,0 l/m 2 min 0 min 583 W/m 2,3 km/h (1 Bft) 100,00 %
03.07.2018 18:00 30,8 C 30,0 C 27,2 C 34 % 1012,3 hPa 0,0 l/m 2 min 0 min 579 W/m 4,5 km/h (1 Bft) 100,00 %
03.07.2018 18:02 30,9 C 30,6 C 26,1 C 37 % 1012,3 hPa 0,0 l/m 2 min 0 min 576 W/m 4,5 km/h (1 Bft) 100,00 %
03.07.2018 18:04 30,8 C 30,6 C 22,8 C 34 % 1012,3 hPa 0,0 l/m 2 min 0 min 571 W/m 2,3 km/h (1 Bft) 100,00 %
03.07.2018 18:07 30,8 C 30,6 C 22,2 C 34 % 1012,2 hPa 0,0 l/m 3 min 0 min 555 W/m 9,0 km/h (2 Bft) 100,00 %
03.07.2018 18:08 30,8 C 30,6 C 22,8 C 34 % 1012,2 hPa 0,0 l/m 1 min 0 min 561 W/m 9,0 km/h (2 Bft) 100,00 %
03.07.2018 18:10 30,7 C 30,0 C 22,8 C 34 % 1012,3 hPa 0,0 l/m 2 min 0 min 550 W/m 11,3 km/h (2 Bft) 100,00 %
03.07.2018 18:12 30,6 C 28,9 C 22,2 C 35 % 1012,3 hPa 0,0 l/m 2 min 0 min 548 W/m 9,0 km/h (2 Bft) 100,00 %
03.07.2018 18:14 30,6 C 27,2 C 20,0 C 34 % 1012,3 hPa 0,0 l/m 2 min 0 min 543 W/m 9,0 km/h (2 Bft) 100,00 %
03.07.2018 18:16 30,6 C 26,7 C 20,0 C 38 % 1012,3 hPa 0,0 l/m 2 min 0 min 534 W/m 4,5 km/h (1 Bft) 100,00 %
03.07.2018 18:18 30,5 C 27,2 C 20,0 C 35 % 1012,3 hPa 0,0 l/m 2 min 0 min 529 W/m 11,3 km/h (2 Bft) 100,00 %
03.07.2018 18:20 30,4 C 27,8 C 20,6 C 35 % 1012,2 hPa 0,0 l/m 2 min 0 min 523 W/m 11,3 km/h (2 Bft) 97,83 %
03.07.2018 18:22 30,4 C 27,8 C 22,2 C 36 % 1012,2 hPa 0,0 l/m 2 min 0 min 518 W/m 13,5 km/h (3 Bft) 100,00 %
03.07.2018 18:24 30,4 C 27,8 C 22,8 C 37 % 1012,2 hPa 0,0 l/m 2 min 0 min 514 W/m 4,5 km/h (1 Bft) 100,00 %
03.07.2018 18:26 30,3 C 28,3 C 22,8 C 39 % 1012,2 hPa 0,0 l/m 2 min 0 min 508 W/m 4,5 km/h (1 Bft) 100,00 %
03.07.2018 18:28 30,3 C 28,3 C 20,6 C 37 % 1012,2 hPa 0,0 l/m 2 min 0 min 498 W/m 4,5 km/h (1 Bft) 100,00 %
03.07.2018 18:30 30,3 C 28,3 C 20,0 C 38 % 1012,2 hPa 0,0 l/m 2 min 0 min 490 W/m 4,5 km/h (1 Bft) 100,00 %
03.07.2018 18:32 30,2 C 26,7 C 18,3 C 40 % 1012,2 hPa 0,0 l/m 2 min 0 min 487 W/m 6,8 km/h (2 Bft) 97,87 %
03.07.2018 18:34 30,2 C 26,1 C 17,8 C 38 % 1012,4 hPa 0,0 l/m 2 min 0 min 484 W/m 4,5 km/h (1 Bft) 100,00 %
03.07.2018 18:36 30,2 C 27,2 C 17,8 C 36 % 1012,3 hPa 0,0 l/m 2 min 0 min 481 W/m 4,5 km/h (1 Bft) 95,74 %
03.07.2018 18:38 30,1 C 27,8 C 17,8 C 36 % 1012,3 hPa 0,0 l/m 2 min 0 min 477 W/m 4,5 km/h (1 Bft) 97,87 %
03.07.2018 18:40 30,0 C 28,3 C 18,9 C 36 % 1012,3 hPa 0,0 l/m 2 min 0 min 470 W/m 9,0 km/h (2 Bft) 97,87 %
03.07.2018 18:42 29,9 C 28,3 C 18,3 C 38 % 1012,2 hPa 0,0 l/m 2 min 0 min 467 W/m 6,8 km/h (2 Bft) 97,83 %
03.07.2018 18:44 29,9 C 28,3 C 19,4 C 36 % 1012,2 hPa 0,0 l/m 2 min 0 min 462 W/m 9,0 km/h (2 Bft) 97,87 %
03.07.2018 18:46 29,8 C 28,3 C 18,9 C 38 % 1012,2 hPa 0,0 l/m 2 min 0 min 459 W/m 4,5 km/h (1 Bft) 97,87 %
03.07.2018 18:48 29,8 C 28,3 C 19,4 C 39 % 1012,2 hPa 0,0 l/m 2 min 0 min 454 W/m 6,8 km/h (2 Bft) 97,87 %
03.07.2018 18:50 29,8 C 28,3 C 18,9 C 38 % 1012,2 hPa 0,0 l/m 2 min 0 min 448 W/m 4,5 km/h (1 Bft) 97,87 %
03.07.2018 18:52 29,8 C 27,2 C 19,4 C 41 % 1012,3 hPa 0,0 l/m 2 min 0 min 445 W/m 4,5 km/h (1 Bft) 97,87 %
03.07.2018 18:54 29,7 C 26,7 C 18,9 C 38 % 1012,2 hPa 0,0 l/m 2 min 0 min 441 W/m 9,0 km/h (2 Bft) 97,83 %
03.07.2018 18:56 29,7 C 26,7 C 19,4 C 37 % 1012,2 hPa 0,0 l/m 2 min 0 min 430 W/m 9,0 km/h (2 Bft) 95,74 %
03.07.2018 18:58 29,6 C 27,2 C 18,9 C 38 % 1012,1 hPa 0,0 l/m 2 min 0 min 421 W/m 6,8 km/h (2 Bft) 97,87 %
03.07.2018 19:00 29,6 C 26,1 C 18,9 C 37 % 1012,1 hPa 0,0 l/m 2 min 0 min 401 W/m 6,8 km/h (2 Bft) 97,87 %
03.07.2018 19:02 29,5 C 25,6 C 18,9 C 37 % 1012,1 hPa 0,0 l/m 2 min 0 min 393 W/m 9,0 km/h (2 Bft) 97,87 %
03.07.2018 19:04 29,4 C 25,6 C 18,3 C 38 % 1012,1 hPa 0,0 l/m 2 min 0 min 394 W/m 6,8 km/h (2 Bft) 97,87 %
03.07.2018 19:06 29,3 C 26,7 C 18,9 C 36 % 1012,1 hPa 0,0 l/m 2 min 0 min 396 W/m 11,3 km/h (2 Bft) 95,74 %
03.07.2018 19:08 29,3 C 27,2 C 18,3 C 37 % 1012,2 hPa 0,0 l/m 2 min 0 min 382 W/m 4,5 km/h (1 Bft) 97,87 %
03.07.2018 19:10 29,2 C 26,7 C 18,3 C 36 % 1012,1 hPa 0,0 l/m 2 min 0 min 386 W/m 6,8 km/h (2 Bft) 97,87 %
03.07.2018 19:12 29,1 C 26,7 C 17,8 C 38 % 1012,0 hPa 0,0 l/m 2 min 0 min 380 W/m 6,8 km/h (2 Bft) 97,30 %
03.07.2018 19:14 29,1 C 26,7 C 18,3 C 37 % 1012,0 hPa 0,0 l/m 2 min 0 min 371 W/m 6,8 km/h (2 Bft) 97,87 %
03.07.2018 19:16 28,9 C 26,1 C 18,3 C 38 % 1012,0 hPa 0,0 l/m 2 min 0 min 361 W/m 4,5 km/h (1 Bft) 97,87 %
03.07.2018 19:18 28,9 C 25,0 C 18,3 C 38 % 1012,0 hPa 0,0 l/m 2 min 0 min 352 W/m 4,5 km/h (1 Bft) 97,87 %
03.07.2018 19:20 28,9 C 24,4 C 17,8 C 39 % 1012,0 hPa 0,0 l/m 2 min 0 min 336 W/m 9,0 km/h (2 Bft) 96,55 %
03.07.2018 19:22 28,9 C 25,6 C 18,3 C 37 % 1012,0 hPa 0,0 l/m 2 min 0 min 330 W/m 6,8 km/h (2 Bft) 100,00 %
03.07.2018 19:24 28,8 C 26,7 C 18,3 C 37 % 1012,0 hPa 0,0 l/m 2 min 0 min 329 W/m 6,8 km/h (2 Bft) 95,74 %
03.07.2018 19:26 28,7 C 27,2 C 17,8 C 37 % 1012,0 hPa 0,0 l/m 2 min 0 min 334 W/m 9,0 km/h (2 Bft) 97,87 %
03.07.2018 19:28 28,7 C 27,2 C 17,8 C 36 % 1012,0 hPa 0,0 l/m 2 min 0 min 327 W/m 6,8 km/h (2 Bft) 97,87 %
03.07.2018 19:30 28,6 C 26,7 C 17,8 C 38 % 1011,9 hPa 0,0 l/m 2 min 0 min 314 W/m 4,5 km/h (1 Bft) 97,87 %
03.07.2018 19:32 28,6 C 26,7 C 17,8 C 39 % 1011,9 hPa 0,0 l/m 2 min 0 min 292 W/m 2,3 km/h (1 Bft) 97,83 %
03.07.2018 19:34 28,6 C 25,0 C 17,8 C 41 % 1011,9 hPa 0,0 l/m 2 min 0 min 274 W/m 2,3 km/h (1 Bft) 97,87 %
03.07.2018 19:36 28,4 C 24,4 C 17,8 C 40 % 1011,9 hPa 0,0 l/m 2 min 0 min 268 W/m 6,8 km/h (2 Bft) 97,87 %
03.07.2018 19:38 28,4 C 23,9 C 17,8 C 38 % 1011,9 hPa 0,0 l/m 2 min 0 min 265 W/m 11,3 km/h (2 Bft) 97,87 %
03.07.2018 19:40 28,3 C 23,3 C 17,8 C 38 % 1011,9 hPa 0,0 l/m 2 min 0 min 274 W/m 6,8 km/h (2 Bft) 97,87 %
03.07.2018 19:42 28,3 C 23,9 C 17,8 C 37 % 1011,9 hPa 0,0 l/m 2 min 0 min 245 W/m 6,8 km/h (2 Bft) 95,74 %
03.07.2018 19:44 28,2 C 23,9 C 17,8 C 37 % 1011,9 hPa 0,0 l/m 2 min 0 min 235 W/m 6,8 km/h (2 Bft) 95,65 %
03.07.2018 19:46 28,2 C 23,9 C 18,3 C 39 % 1011,8 hPa 0,0 l/m 2 min 0 min 224 W/m 6,8 km/h (2 Bft) 97,87 %
03.07.2018 19:48 28,1 C 24,4 C 18,3 C 38 % 1011,8 hPa 0,0 l/m 2 min 0 min 222 W/m 9,0 km/h (2 Bft) 95,74 %
03.07.2018 19:50 28,1 C 25,0 C 18,3 C 38 % 1011,8 hPa 0,0 l/m 2 min 0 min 243 W/m 4,5 km/h (1 Bft) 96,61 %
03.07.2018 19:52 28,0 C 25,0 C 17,8 C 39 % 1011,8 hPa 0,0 l/m 2 min 0 min 238 W/m 4,5 km/h (1 Bft) 97,83 %
03.07.2018 19:54 27,9 C 25,6 C 18,3 C 40 % 1011,8 hPa 0,0 l/m 2 min 0 min 235 W/m 4,5 km/h (1 Bft) 97,22 %
03.07.2018 19:56 27,8 C 25,6 C 18,3 C 39 % 1011,9 hPa 0,0 l/m 2 min 0 min 211 W/m 6,8 km/h (2 Bft) 97,83 %
03.07.2018 19:58 27,8 C 25,6 C 18,3 C 39 % 1011,8 hPa 0,0 l/m 2 min 0 min 142 W/m 2,3 km/h (1 Bft) 97,87 %
03.07.2018 20:00 27,7 C 25,6 C 18,3 C 39 % 1011,8 hPa 0,0 l/m 0 min 0 min 90 W/m 2,3 km/h (1 Bft) 91,49 %
03.07.2018 20:02 27,7 C 25,6 C 18,3 C 41 % 1011,8 hPa 0,0 l/m 0 min 0 min 70 W/m 2,3 km/h (1 Bft) 97,87 %
03.07.2018 20:04 27,6 C 25,6 C 17,2 C 40 % 1011,8 hPa 0,0 l/m 0 min 0 min 69 W/m 6,8 km/h (2 Bft) 97,87 %
03.07.2018 20:06 27,5 C 25,6 C 16,7 C 40 % 1011,8 hPa 0,0 l/m 0 min 0 min 68 W/m 2,3 km/h (1 Bft) 97,87 %
03.07.2018 20:08 27,4 C 25,6 C 16,7 C 39 % 1011,8 hPa 0,0 l/m 0 min 0 min 65 W/m 4,5 km/h (1 Bft) 97,83 %
03.07.2018 20:10 27,3 C 25,6 C 17,2 C 39 % 1011,9 hPa 0,0 l/m 0 min 0 min 64 W/m 4,5 km/h (1 Bft) 97,87 %
03.07.2018 20:12 27,3 C 25,6 C 17,8 C 38 % 1011,9 hPa 0,0 l/m 0 min 0 min 62 W/m 4,5 km/h (1 Bft) 97,87 %
03.07.2018 20:14 27,2 C 25,6 C 17,2 C 41 % 1011,8 hPa 0,0 l/m 0 min 0 min 61 W/m 4,5 km/h (1 Bft) 97,87 %
03.07.2018 20:16 27,2 C 25,6 C 17,2 C 39 % 1011,8 hPa 0,0 l/m 0 min 0 min 60 W/m 2,3 km/h (1 Bft) 95,74 %
03.07.2018 20:18 27,1 C 25,6 C 17,2 C 39 % 1011,7 hPa 0,0 l/m 0 min 0 min 58 W/m 4,5 km/h (1 Bft) 95,74 %
03.07.2018 20:20 27,0 C 25,0 C 17,8 C 40 % 1011,8 hPa 0,0 l/m 0 min 0 min 56 W/m 4,5 km/h (1 Bft) 98,28 %
03.07.2018 20:22 26,9 C 25,0 C 17,8 C 39 % 1011,8 hPa 0,0 l/m 0 min 0 min 54 W/m 9,0 km/h (2 Bft) 95,74 %
03.07.2018 20:24 26,9 C 25,0 C 17,2 C 40 % 1011,8 hPa 0,0 l/m 0 min 0 min 53 W/m 2,3 km/h (1 Bft) 94,29 %
03.07.2018 20:26 26,8 C 25,0 C 16,7 C 40 % 1011,8 hPa 0,0 l/m 0 min 0 min 51 W/m 4,5 km/h (1 Bft) 97,87 %
03.07.2018 20:28 26,8 C 25,0 C 16,1 C 40 % 1011,8 hPa 0,0 l/m 0 min 0 min 50 W/m 4,5 km/h (1 Bft) 100,00 %
03.07.2018 20:30 26,7 C 25,0 C 16,7 C 38 % 1011,9 hPa 0,0 l/m 0 min 0 min 48 W/m 4,5 km/h (1 Bft) 97,83 %
03.07.2018 20:32 26,7 C 25,0 C 16,1 C 40 % 1012,0 hPa 0,0 l/m 0 min 0 min 47 W/m 4,5 km/h (1 Bft) 97,87 %
03.07.2018 20:34 26,6 C 25,0 C 16,1 C 40 % 1011,9 hPa 0,0 l/m 0 min 0 min 46 W/m 2,3 km/h (1 Bft) 95,74 %
03.07.2018 20:36 26,6 C 25,0 C 16,1 C 41 % 1012,0 hPa 0,0 l/m 0 min 0 min 44 W/m 2,3 km/h (1 Bft) 100,00 %
03.07.2018 20:38 26,5 C 25,0 C 16,1 C 40 % 1012,0 hPa 0,0 l/m 0 min 0 min 44 W/m 4,5 km/h (1 Bft) 100,00 %
03.07.2018 20:40 26,4 C 24,4 C 16,7 C 40 % 1012,0 hPa 0,0 l/m 0 min 0 min 42 W/m 2,3 km/h (1 Bft) 100,00 %
03.07.2018 20:42 26,4 C 24,4 C 16,7 C 41 % 1012,0 hPa 0,0 l/m 0 min 0 min 40 W/m 6,8 km/h (2 Bft) 95,74 %
03.07.2018 20:44 26,3 C 24,4 C 16,7 C 42 % 1012,0 hPa 0,0 l/m 0 min 0 min 40 W/m 2,3 km/h (1 Bft) 97,83 %
03.07.2018 20:46 26,3 C 24,4 C 16,7 C 42 % 1012,0 hPa 0,0 l/m 0 min 0 min 39 W/m 2,3 km/h (1 Bft) 97,87 %
03.07.2018 20:48 26,2 C 24,4 C 16,7 C 41 % 1012,0 hPa 0,0 l/m 0 min 0 min 36 W/m 4,5 km/h (1 Bft) 95,74 %
03.07.2018 20:50 26,2 C 24,4 C 17,2 C 43 % 1012,1 hPa 0,0 l/m 0 min 0 min 34 W/m 4,5 km/h (1 Bft) 97,87 %
03.07.2018 20:52 26,1 C 24,4 C 17,2 C 41 % 1012,0 hPa 0,0 l/m 0 min 0 min 32 W/m 4,5 km/h (1 Bft) 97,87 %
03.07.2018 20:54 26,1 C 24,4 C 17,8 C 42 % 1012,0 hPa 0,0 l/m 0 min 0 min 29 W/m 4,5 km/h (1 Bft) 97,83 %
03.07.2018 20:56 26,1 C 24,4 C 18,3 C 42 % 1012,0 hPa 0,0 l/m 0 min 0 min 28 W/m 2,3 km/h (1 Bft) 95,74 %
03.07.2018 20:58 26,0 C 23,9 C 18,9 C 43 % 1012,0 hPa 0,0 l/m 0 min 0 min 26 W/m 0,0 km/h (0 Bft) 97,87 %
03.07.2018 21:00 25,9 C 23,9 C 18,3 C 44 % 1012,0 hPa 0,0 l/m 0 min 0 min 26 W/m 2,3 km/h (1 Bft) 97,87 %
03.07.2018 21:02 25,8 C 23,9 C 17,8 C 44 % 1012,0 hPa 0,0 l/m 0 min 0 min 26 W/m 0,0 km/h (0 Bft) 97,87 %
03.07.2018 21:04 25,8 C 23,9 C 17,2 C 45 % 1012,0 hPa 0,0 l/m 0 min 0 min 25 W/m 2,3 km/h (1 Bft) 97,87 %
03.07.2018 21:06 25,7 C 23,9 C 16,7 C 45 % 1012,0 hPa 0,0 l/m 0 min 0 min 25 W/m 2,3 km/h (1 Bft) 97,83 %
03.07.2018 21:08 25,7 C 23,3 C 16,7 C 46 % 1012,0 hPa 0,0 l/m 0 min 0 min 25 W/m 2,3 km/h (1 Bft) 95,74 %
03.07.2018 21:10 25,6 C 23,3 C 16,7 C 46 % 1012,0 hPa 0,0 l/m 0 min 0 min 25 W/m 2,3 km/h (1 Bft) 97,87 %
03.07.2018 21:12 25,5 C 23,3 C 16,1 C 45 % 1012,0 hPa 0,0 l/m 0 min 0 min 24 W/m 2,3 km/h (1 Bft) 95,74 %
03.07.2018 21:14 25,4 C 23,3 C 16,1 C 45 % 1012,0 hPa 0,0 l/m 0 min 0 min 23 W/m 2,3 km/h (1 Bft) 97,87 %
03.07.2018 21:16 25,4 C 22,8 C 16,1 C 47 % 1012,0 hPa 0,0 l/m 0 min 0 min 22 W/m 4,5 km/h (1 Bft) 97,87 %
03.07.2018 21:18 25,3 C 22,8 C 16,1 C 46 % 1012,1 hPa 0,0 l/m 0 min 0 min 21 W/m 2,3 km/h (1 Bft) 97,83 %
03.07.2018 21:20 25,2 C 22,8 C 15,6 C 47 % 1012,1 hPa 0,0 l/m 0 min 0 min 21 W/m 0,0 km/h (0 Bft) 97,87 %
03.07.2018 21:22 25,2 C 22,8 C 15,6 C 47 % 1012,0 hPa 0,0 l/m 0 min 0 min 20 W/m 2,3 km/h (1 Bft) 95,74 %
03.07.2018 21:24 25,1 C 22,8 C 15,6 C 48 % 1012,0 hPa 0,0 l/m 0 min 0 min 19 W/m 2,3 km/h (1 Bft) 97,87 %
03.07.2018 21:26 25,1 C 22,8 C 15,6 C 48 % 1012,0 hPa 0,0 l/m 0 min 0 min 19 W/m 0,0 km/h (0 Bft) 95,74 %
03.07.2018 21:28 24,9 C 22,8 C 15,0 C 48 % 1012,0 hPa 0,0 l/m 0 min 0 min 18 W/m 4,5 km/h (1 Bft) 97,87 %
03.07.2018 21:30 24,9 C 22,2 C 15,0 C 49 % 1012,0 hPa 0,0 l/m 0 min 0 min 17 W/m 4,5 km/h (1 Bft) 97,83 %
03.07.2018 21:32 24,8 C 22,2 C 15,0 C 50 % 1012,1 hPa 0,0 l/m 0 min 0 min 16 W/m 2,3 km/h (1 Bft) 97,87 %
03.07.2018 21:34 24,7 C 22,2 C 15,0 C 50 % 1012,1 hPa 0,0 l/m 0 min 0 min 15 W/m 2,3 km/h (1 Bft) 97,87 %
03.07.2018 21:36 24,7 C 22,2 C 15,0 C 49 % 1012,2 hPa 0,0 l/m 0 min 0 min 14 W/m 2,3 km/h (1 Bft) 97,87 %
03.07.2018 21:38 24,6 C 21,7 C 15,0 C 51 % 1012,1 hPa 0,0 l/m 0 min 0 min 13 W/m 0,0 km/h (0 Bft) 100,00 %
03.07.2018 21:40 24,5 C 21,1 C 15,0 C 51 % 1012,1 hPa 0,0 l/m 0 min 0 min 12 W/m 2,3 km/h (1 Bft) 100,00 %
03.07.2018 21:42 24,4 C 20,0 C 15,0 C 51 % 1012,1 hPa 0,0 l/m 0 min 0 min 12 W/m 2,3 km/h (1 Bft) 97,87 %
03.07.2018 21:44 24,3 C 20,6 C 14,4 C 51 % 1012,2 hPa 0,0 l/m 0 min 0 min 11 W/m 0,0 km/h (0 Bft) 100,00 %
03.07.2018 21:46 24,3 C 21,1 C 14,4 C 52 % 1012,2 hPa 0,0 l/m 0 min 0 min 9 W/m 0,0 km/h (0 Bft) 100,00 %
03.07.2018 21:48 24,2 C 21,1 C 14,4 C 53 % 1012,2 hPa 0,0 l/m 0 min 0 min 9 W/m 0,0 km/h (0 Bft) 100,00 %
03.07.2018 21:50 24,1 C 21,7 C 14,4 C 52 % 1012,2 hPa 0,0 l/m 0 min 0 min 7 W/m 0,0 km/h (0 Bft) 100,00 %
03.07.2018 21:52 24,1 C 21,7 C 14,4 C 52 % 1012,2 hPa 0,0 l/m 0 min 0 min 7 W/m 0,0 km/h (0 Bft) 100,00 %
03.07.2018 21:54 23,9 C 21,1 C 14,4 C 51 % 1012,3 hPa 0,0 l/m 0 min 0 min 5 W/m 0,0 km/h (0 Bft) 100,00 %
03.07.2018 21:56 23,9 C 21,1 C 14,4 C 51 % 1012,3 hPa 0,0 l/m 0 min 0 min 5 W/m 0,0 km/h (0 Bft) 100,00 %
03.07.2018 21:58 23,8 C 21,1 C 14,4 C 52 % 1012,3 hPa 0,0 l/m 0 min 0 min 5 W/m 0,0 km/h (0 Bft) 100,00 %
03.07.2018 22:00 23,7 C 21,1 C 14,4 C 52 % 1012,3 hPa 0,0 l/m 0 min 0 min 5 W/m 0,0 km/h (0 Bft) 100,00 %
03.07.2018 22:02 23,7 C 21,1 C 14,4 C 52 % 1012,3 hPa 0,0 l/m 0 min 0 min 2 W/m 0,0 km/h (0 Bft) 95,74 %
03.07.2018 22:04 23,6 C 21,1 C 14,4 C 53 % 1012,3 hPa 0,0 l/m 0 min 0 min 0 W/m 0,0 km/h (0 Bft) 97,83 %
03.07.2018 22:06 23,5 C 21,1 C 14,4 C 53 % 1012,3 hPa 0,0 l/m 0 min 0 min 0 W/m 0,0 km/h (0 Bft) 97,87 %
03.07.2018 22:08 23,4 C 21,1 C 14,4 C 53 % 1012,3 hPa 0,0 l/m 0 min 0 min 0 W/m 0,0 km/h (0 Bft) 97,87 %
03.07.2018 22:10 23,3 C 21,1 C 14,4 C 54 % 1012,3 hPa 0,0 l/m 0 min 0 min 0 W/m 0,0 km/h (0 Bft) 97,87 %
03.07.2018 22:12 23,3 C 21,1 C 14,4 C 54 % 1012,3 hPa 0,0 l/m 0 min 0 min 0 W/m 0,0 km/h (0 Bft) 97,87 %
03.07.2018 22:14 23,2 C 20,6 C 14,4 C 54 % 1012,4 hPa 0,0 l/m 0 min 0 min 0 W/m 0,0 km/h (0 Bft) 95,74 %
03.07.2018 22:16 23,1 C 20,0 C 14,4 C 55 % 1012,3 hPa 0,0 l/m 0 min 0 min 0 W/m 0,0 km/h (0 Bft) 97,83 %
03.07.2018 22:18 23,0 C 20,0 C 13,9 C 54 % 1012,4 hPa 0,0 l/m 0 min 0 min 0 W/m 0,0 km/h (0 Bft) 95,74 %
03.07.2018 22:20 22,9 C 20,6 C 14,4 C 54 % 1012,4 hPa 0,0 l/m 0 min 0 min 0 W/m 0,0 km/h (0 Bft) 95,74 %
03.07.2018 22:22 22,8 C 20,6 C 14,4 C 55 % 1012,4 hPa 0,0 l/m 0 min 0 min 0 W/m 0,0 km/h (0 Bft) 95,74 %
03.07.2018 22:24 22,8 C 20,6 C 14,4 C 55 % 1012,3 hPa 0,0 l/m 0 min 0 min 0 W/m 0,0 km/h (0 Bft) 95,74 %
03.07.2018 22:26 22,7 C 20,6 C 14,4 C 54 % 1012,3 hPa 0,0 l/m 0 min 0 min 0 W/m 0,0 km/h (0 Bft) 95,74 %
03.07.2018 22:28 22,6 C 20,6 C 14,4 C 54 % 1012,3 hPa 0,0 l/m 0 min 0 min 0 W/m 0,0 km/h (0 Bft) 95,65 %
03.07.2018 22:30 22,5 C 20,6 C 14,4 C 54 % 1012,4 hPa 0,0 l/m 0 min 0 min 0 W/m 0,0 km/h (0 Bft) 95,74 %
03.07.2018 22:32 22,4 C 20,6 C 14,4 C 54 % 1012,4 hPa 0,0 l/m 0 min 0 min 0 W/m 0,0 km/h (0 Bft) 95,74 %
03.07.2018 22:34 22,4 C 20,0 C 14,4 C 55 % 1012,3 hPa 0,0 l/m 0 min 0 min 0 W/m 0,0 km/h (0 Bft) 95,74 %
03.07.2018 22:36 22,3 C 20,0 C 15,0 C 55 % 1012,3 hPa 0,0 l/m 0 min 0 min 0 W/m 0,0 km/h (0 Bft) 93,62 %
03.07.2018 22:38 22,2 C 20,6 C 15,0 C 56 % 1012,4 hPa 0,0 l/m 0 min 0 min 0 W/m 0,0 km/h (0 Bft) 95,74 %
03.07.2018 22:40 22,2 C 20,6 C 15,0 C 55 % 1012,3 hPa 0,0 l/m 0 min 0 min 0 W/m 4,5 km/h (1 Bft) 95,65 %
03.07.2018 22:42 22,1 C 20,6 C 15,0 C 55 % 1012,3 hPa 0,0 l/m 0 min 0 min 0 W/m 0,0 km/h (0 Bft) 95,74 %
03.07.2018 22:44 22,0 C 20,6 C 15,0 C 54 % 1012,4 hPa 0,0 l/m 0 min 0 min 0 W/m 0,0 km/h (0 Bft) 95,74 %
03.07.2018 22:46 21,9 C 20,6 C 15,0 C 54 % 1012,4 hPa 0,0 l/m 0 min 0 min 0 W/m 0,0 km/h (0 Bft) 95,74 %
03.07.2018 22:48 21,8 C 20,6 C 15,6 C 53 % 1012,3 hPa 0,0 l/m 0 min 0 min 0 W/m 0,0 km/h (0 Bft) 95,74 %
03.07.2018 22:50 21,8 C 20,6 C 16,1 C 54 % 1012,4 hPa 0,0 l/m 0 min 0 min 0 W/m 2,3 km/h (1 Bft) 93,62 %
03.07.2018 22:52 21,7 C 21,1 C 16,7 C 52 % 1012,4 hPa 0,0 l/m 0 min 0 min 0 W/m 2,3 km/h (1 Bft) 95,65 %
03.07.2018 22:54 21,6 C 20,6 C 16,7 C 53 % 1012,4 hPa 0,0 l/m 0 min 0 min 0 W/m 0,0 km/h (0 Bft) 93,62 %
03.07.2018 22:56 21,6 C 20,6 C 16,7 C 53 % 1012,4 hPa 0,0 l/m 0 min 0 min 0 W/m 0,0 km/h (0 Bft) 95,83 %
03.07.2018 22:58 21,6 C 20,6 C 16,7 C 53 % 1012,5 hPa 0,0 l/m 0 min 0 min 0 W/m 0,0 km/h (0 Bft) 93,62 %
03.07.2018 23:00 21,5 C 20,6 C 16,7 C 54 % 1012,4 hPa 0,0 l/m 0 min 0 min 0 W/m 0,0 km/h (0 Bft) 97,87 %
03.07.2018 23:02 21,4 C 20,0 C 16,7 C 54 % 1012,3 hPa 0,0 l/m 0 min 0 min 0 W/m 0,0 km/h (0 Bft) 95,65 %
03.07.2018 23:04 21,4 C 20,0 C 16,7 C 54 % 1012,4 hPa 0,0 l/m 0 min 0 min 0 W/m 0,0 km/h (0 Bft) 95,74 %
03.07.2018 23:06 21,4 C 20,0 C 16,7 C 54 % 1012,5 hPa 0,0 l/m 0 min 0 min 0 W/m 0,0 km/h (0 Bft) 95,74 %
03.07.2018 23:08 21,3 C 20,0 C 16,7 C 54 % 1012,5 hPa 0,0 l/m 0 min 0 min 0 W/m 0,0 km/h (0 Bft) 100,00 %
03.07.2018 23:10 21,3 C 20,0 C 16,7 C 54 % 1012,5 hPa 0,0 l/m 0 min 0 min 0 W/m 0,0 km/h (0 Bft) 97,87 %
03.07.2018 23:12 21,3 C 20,0 C 16,7 C 55 % 1012,5 hPa 0,0 l/m 0 min 0 min 0 W/m 0,0 km/h (0 Bft) 100,00 %
03.07.2018 23:14 21,2 C 20,0 C 16,7 C 55 % 1012,5 hPa 0,0 l/m 0 min 0 min 0 W/m 0,0 km/h (0 Bft) 95,65 %
03.07.2018 23:16 21,2 C 20,0 C 16,7 C 55 % 1012,4 hPa 0,0 l/m 0 min 0 min 0 W/m 0,0 km/h (0 Bft) 97,87 %
03.07.2018 23:18 21,2 C 20,0 C 16,7 C 54 % 1012,5 hPa 0,0 l/m 0 min 0 min 0 W/m 0,0 km/h (0 Bft) 95,74 %
03.07.2018 23:20 21,1 C 20,0 C 16,7 C 55 % 1012,5 hPa 0,0 l/m 0 min 0 min 0 W/m 0,0 km/h (0 Bft) 97,87 %
03.07.2018 23:22 21,1 C 20,0 C 16,7 C 55 % 1012,5 hPa 0,0 l/m 0 min 0 min 0 W/m 0,0 km/h (0 Bft) 100,00 %
03.07.2018 23:24 21,1 C 19,4 C 16,7 C 55 % 1012,5 hPa 0,0 l/m 0 min 0 min 0 W/m 0,0 km/h (0 Bft) 95,74 %
03.07.2018 23:26 21,0 C 19,4 C 16,7 C 56 % 1012,4 hPa 0,0 l/m 0 min 0 min 0 W/m 0,0 km/h (0 Bft) 100,00 %
03.07.2018 23:28 21,0 C 19,4 C 16,7 C 56 % 1012,4 hPa 0,0 l/m 0 min 0 min 0 W/m 0,0 km/h (0 Bft) 93,62 %
03.07.2018 23:30 20,9 C 19,4 C 16,7 C 56 % 1012,4 hPa 0,0 l/m 0 min 0 min 0 W/m 0,0 km/h (0 Bft) 97,87 %
03.07.2018 23:32 20,9 C 19,4 C 16,7 C 56 % 1012,4 hPa 0,0 l/m 0 min 0 min 0 W/m 0,0 km/h (0 Bft) 95,74 %
03.07.2018 23:34 20,9 C 19,4 C 16,7 C 57 % 1012,5 hPa 0,0 l/m 0 min 0 min 0 W/m 0,0 km/h (0 Bft) 97,87 %
03.07.2018 23:36 20,8 C 19,4 C 16,7 C 57 % 1012,6 hPa 0,0 l/m 0 min 0 min 0 W/m 0,0 km/h (0 Bft) 97,87 %
03.07.2018 23:38 20,8 C 19,4 C 16,7 C 57 % 1012,5 hPa 0,0 l/m 0 min 0 min 0 W/m 0,0 km/h (0 Bft) 97,83 %
03.07.2018 23:40 20,8 C 19,4 C 16,7 C 57 % 1012,5 hPa 0,0 l/m 0 min 0 min 0 W/m 0,0 km/h (0 Bft) 95,74 %
03.07.2018 23:42 20,7 C 19,4 C 16,7 C 57 % 1012,4 hPa 0,0 l/m 0 min 0 min 0 W/m 0,0 km/h (0 Bft) 97,87 %
03.07.2018 23:44 20,7 C 19,4 C 16,7 C 57 % 1012,5 hPa 0,0 l/m 0 min 0 min 0 W/m 0,0 km/h (0 Bft) 97,87 %
03.07.2018 23:46 20,7 C 18,9 C 16,7 C 57 % 1012,5 hPa 0,0 l/m 0 min 0 min 0 W/m 0,0 km/h (0 Bft) 97,87 %
03.07.2018 23:48 20,6 C 18,9 C 16,7 C 57 % 1012,5 hPa 0,0 l/m 0 min 0 min 0 W/m 0,0 km/h (0 Bft) 97,87 %
03.07.2018 23:50 20,6 C 18,9 C 16,7 C 57 % 1012,6 hPa 0,0 l/m 0 min 0 min 0 W/m 0,0 km/h (0 Bft) 97,83 %
03.07.2018 23:52 20,5 C 18,9 C 16,7 C 57 % 1012,6 hPa 0,0 l/m 0 min 0 min 0 W/m 0,0 km/h (0 Bft) 97,87 %
03.07.2018 23:54 20,5 C 18,9 C 16,7 C 58 % 1012,6 hPa 0,0 l/m 0 min 0 min 0 W/m 0,0 km/h (0 Bft) 97,87 %
03.07.2018 23:56 20,4 C 18,9 C 16,7 C 58 % 1012,6 hPa 0,0 l/m 0 min 0 min 0 W/m 0,0 km/h (0 Bft) 97,87 %
03.07.2018 23:58 20,4 C 18,9 C 16,7 C 58 % 1012,6 hPa 0,0 l/m 0 min 0 min 0 W/m 0,0 km/h (0 Bft) 95,74 %
_ Min-Zeit 07:06 05:20 06:26 16:12 20:18 - - - - 00:02 14:02
Minimum _ 13,7 C 12,8 C 13,3 C 31 % 1011,7 hPa - - - - 0,0 km/h (0 Bft) 89,80 %
_ Max-Zeit 17:20 13:02 17:02 07:08 08:20 00:00 12:07 00:00 14:00 11:44 00:02
Maximum _ 31,2 C 39,4 C 28,3 C 77 % 1015,1 hPa 0,0 l/m 3 min 0 min 922 W/m 18,0 km/h
S (3 Bft)
100,00 %
Durchschnitt _ 22,8 C 23,3 C 19,4 C 50 % 1013,7 hPa #0,0 l/m #11:46 h #0 min. 470 W/m 4,3 km/h (1 Bft) 97,59 %
© 2018 W. Hausmann